Wetterdaten: Donnerstag, 25.04.2019
Datum Zeit Temp. Aussen Temp. o. S. +5cm Feuchte Auss Luftdruck Regen Sonnenschein Regendauer Solar Windben Empfang
25.04.2019 00:00 10,0 C 8,9 C 8,9 C 94 % 1002,7 hPa 0,0 l/m 0 min 0 min 0 W/m 25,7 km/h (4 Bft) 95,74 %
25.04.2019 00:02 10,0 C 8,9 C 8,9 C 94 % 1002,6 hPa 0,0 l/m 0 min 0 min 0 W/m 12,9 km/h (3 Bft) 11,11 %
25.04.2019 00:04 10,0 C 8,9 C 8,9 C 95 % 1002,7 hPa 0,0 l/m 0 min 0 min 0 W/m 29,0 km/h (5 Bft) 88,64 %
25.04.2019 00:08 10,1 C 8,9 C 8,9 C 94 % 1002,9 hPa 0,0 l/m 0 min 0 min 0 W/m 32,2 km/h (5 Bft) 94,68 %
25.04.2019 00:10 10,1 C 8,9 C 8,9 C 94 % 1002,9 hPa 0,0 l/m 0 min 0 min 0 W/m 25,7 km/h (4 Bft) 97,87 %
25.04.2019 00:12 10,1 C 8,9 C 8,9 C 94 % 1002,9 hPa 0,0 l/m 0 min 0 min 0 W/m 19,3 km/h (3 Bft) 97,87 %
25.04.2019 00:14 10,1 C 8,9 C 8,9 C 94 % 1002,9 hPa 0,0 l/m 0 min 0 min 0 W/m 25,7 km/h (4 Bft) 97,87 %
25.04.2019 00:16 10,1 C 8,9 C 8,9 C 94 % 1002,8 hPa 0,0 l/m 0 min 0 min 0 W/m 29,0 km/h (5 Bft) 97,83 %
25.04.2019 00:18 10,1 C 8,9 C 8,9 C 94 % 1002,9 hPa 0,0 l/m 0 min 0 min 0 W/m 35,4 km/h (5 Bft) 97,87 %
25.04.2019 00:20 10,1 C 8,9 C 8,9 C 94 % 1002,9 hPa 0,0 l/m 0 min 0 min 0 W/m 25,7 km/h (4 Bft) 95,74 %
25.04.2019 00:22 10,1 C 8,9 C 8,9 C 94 % 1002,9 hPa 0,0 l/m 0 min 0 min 0 W/m 38,6 km/h (5 Bft) 97,87 %
25.04.2019 00:24 10,1 C 8,9 C 8,9 C 94 % 1003,0 hPa 0,0 l/m 0 min 0 min 0 W/m 25,7 km/h (4 Bft) 97,87 %
25.04.2019 00:26 10,1 C 8,9 C 8,9 C 94 % 1003,1 hPa 0,0 l/m 0 min 0 min 0 W/m 29,0 km/h (5 Bft) 95,74 %
25.04.2019 00:28 10,1 C 8,9 C 8,9 C 94 % 1003,1 hPa 0,0 l/m 0 min 0 min 0 W/m 25,7 km/h (4 Bft) 97,83 %
25.04.2019 00:30 10,1 C 8,9 C 8,9 C 94 % 1003,3 hPa 0,0 l/m 0 min 0 min 0 W/m 25,7 km/h (4 Bft) 97,87 %
25.04.2019 00:32 10,1 C 8,9 C 8,9 C 94 % 1003,3 hPa 0,0 l/m 0 min 0 min 0 W/m 25,7 km/h (4 Bft) 97,87 %
25.04.2019 00:34 10,1 C 8,9 C 8,9 C 94 % 1003,4 hPa 0,0 l/m 0 min 0 min 0 W/m 25,7 km/h (4 Bft) 97,14 %
25.04.2019 00:36 10,1 C 8,9 C 8,9 C 94 % 1003,3 hPa 0,0 l/m 0 min 0 min 0 W/m 19,3 km/h (3 Bft) 96,77 %
25.04.2019 00:38 10,1 C 8,9 C 8,9 C 94 % 1003,3 hPa 0,0 l/m 0 min 0 min 0 W/m 35,4 km/h (5 Bft) 97,83 %
25.04.2019 00:40 10,1 C 8,9 C 8,9 C 94 % 1003,1 hPa 0,0 l/m 0 min 0 min 0 W/m 19,3 km/h (3 Bft) 97,87 %
25.04.2019 00:42 10,1 C 8,9 C 8,9 C 94 % 1003,1 hPa 0,0 l/m 0 min 0 min 0 W/m 32,2 km/h (5 Bft) 97,87 %
25.04.2019 00:44 10,1 C 8,9 C 8,9 C 94 % 1003,3 hPa 0,0 l/m 0 min 0 min 0 W/m 16,1 km/h (3 Bft) 97,87 %
25.04.2019 00:46 10,1 C 8,9 C 8,9 C 94 % 1003,1 hPa 0,0 l/m 0 min 0 min 0 W/m 35,4 km/h (5 Bft) 95,74 %
25.04.2019 00:48 10,1 C 8,9 C 8,3 C 94 % 1003,1 hPa 0,0 l/m 0 min 0 min 0 W/m 29,0 km/h (5 Bft) 97,87 %
25.04.2019 00:50 10,1 C 8,9 C 8,3 C 94 % 1003,0 hPa 0,0 l/m 0 min 0 min 0 W/m 32,2 km/h (5 Bft) 97,83 %
25.04.2019 00:52 10,1 C 8,9 C 8,3 C 94 % 1003,2 hPa 0,0 l/m 0 min 0 min 0 W/m 19,3 km/h (3 Bft) 100,00 %
25.04.2019 00:54 10,1 C 8,9 C 8,3 C 94 % 1003,1 hPa 0,0 l/m 0 min 0 min 0 W/m 25,7 km/h (4 Bft) 100,00 %
25.04.2019 00:56 10,0 C 8,9 C 8,3 C 94 % 1003,1 hPa 0,0 l/m 0 min 0 min 0 W/m 29,0 km/h (5 Bft) 97,87 %
25.04.2019 00:58 10,0 C 8,9 C 8,3 C 94 % 1003,0 hPa 0,0 l/m 0 min 0 min 0 W/m 19,3 km/h (3 Bft) 100,00 %
25.04.2019 01:00 10,0 C 8,9 C 8,3 C 94 % 1003,1 hPa 0,0 l/m 0 min 0 min 0 W/m 25,7 km/h (4 Bft) 100,00 %
25.04.2019 01:02 9,9 C 8,9 C 8,3 C 94 % 1003,1 hPa 0,0 l/m 0 min 0 min 0 W/m 16,1 km/h (3 Bft) 100,00 %
25.04.2019 01:04 9,9 C 8,9 C 8,3 C 94 % 1003,0 hPa 0,0 l/m 0 min 0 min 0 W/m 16,1 km/h (3 Bft) 100,00 %
25.04.2019 01:06 9,9 C 8,9 C 8,3 C 94 % 1003,1 hPa 0,0 l/m 0 min 0 min 0 W/m 16,1 km/h (3 Bft) 97,87 %
25.04.2019 01:08 9,9 C 8,9 C 8,3 C 94 % 1003,1 hPa 0,0 l/m 0 min 0 min 0 W/m 22,5 km/h (4 Bft) 100,00 %
25.04.2019 01:10 9,9 C 8,9 C 8,3 C 94 % 1003,1 hPa 0,0 l/m 0 min 0 min 0 W/m 16,1 km/h (3 Bft) 100,00 %
25.04.2019 01:12 9,9 C 8,9 C 8,3 C 94 % 1003,0 hPa 0,0 l/m 0 min 0 min 0 W/m 12,9 km/h (3 Bft) 97,83 %
25.04.2019 01:14 9,9 C 8,9 C 8,3 C 94 % 1003,0 hPa 0,0 l/m 0 min 0 min 0 W/m 25,7 km/h (4 Bft) 100,00 %
25.04.2019 01:16 9,9 C 8,9 C 8,3 C 94 % 1003,0 hPa 0,0 l/m 0 min 0 min 0 W/m 16,1 km/h (3 Bft) 100,00 %
25.04.2019 01:18 9,9 C 8,9 C 8,3 C 94 % 1002,9 hPa 0,0 l/m 0 min 0 min 0 W/m 16,1 km/h (3 Bft) 100,00 %
25.04.2019 01:20 9,8 C 8,9 C 8,3 C 94 % 1002,9 hPa 0,0 l/m 0 min 0 min 0 W/m 12,9 km/h (3 Bft) 100,00 %
25.04.2019 01:22 9,8 C 8,3 C 8,3 C 94 % 1002,8 hPa 0,0 l/m 0 min 0 min 0 W/m 16,1 km/h (3 Bft) 100,00 %
25.04.2019 01:24 9,8 C 8,3 C 8,3 C 94 % 1002,9 hPa 0,0 l/m 0 min 0 min 0 W/m 12,9 km/h (3 Bft) 100,00 %
25.04.2019 01:26 9,8 C 8,3 C 8,3 C 94 % 1002,9 hPa 0,0 l/m 0 min 0 min 0 W/m 22,5 km/h (4 Bft) 100,00 %
25.04.2019 01:28 9,8 C 8,3 C 7,8 C 94 % 1002,8 hPa 0,0 l/m 0 min 0 min 0 W/m 12,9 km/h (3 Bft) 100,00 %
25.04.2019 01:30 9,8 C 8,3 C 7,8 C 94 % 1002,9 hPa 0,0 l/m 0 min 0 min 0 W/m 16,1 km/h (3 Bft) 100,00 %
25.04.2019 01:32 9,8 C 8,3 C 7,8 C 94 % 1002,9 hPa 0,0 l/m 0 min 0 min 0 W/m 22,5 km/h (4 Bft) 100,00 %
25.04.2019 01:34 9,7 C 8,3 C 7,8 C 94 % 1002,9 hPa 0,0 l/m 0 min 0 min 0 W/m 22,5 km/h (4 Bft) 97,87 %
25.04.2019 01:36 9,7 C 8,3 C 7,8 C 94 % 1002,9 hPa 0,0 l/m 0 min 0 min 0 W/m 19,3 km/h (3 Bft) 100,00 %
25.04.2019 01:38 9,7 C 8,3 C 7,8 C 94 % 1002,9 hPa 0,0 l/m 0 min 0 min 0 W/m 22,5 km/h (4 Bft) 100,00 %
25.04.2019 01:40 9,7 C 8,3 C 7,8 C 94 % 1002,9 hPa 0,0 l/m 0 min 0 min 0 W/m 16,1 km/h (3 Bft) 95,74 %
25.04.2019 01:42 9,7 C 8,3 C 7,8 C 94 % 1002,8 hPa 0,0 l/m 0 min 0 min 0 W/m 22,5 km/h (4 Bft) 97,87 %
25.04.2019 01:44 9,7 C 8,3 C 7,8 C 94 % 1002,8 hPa 0,0 l/m 0 min 0 min 0 W/m 12,9 km/h (3 Bft) 100,00 %
25.04.2019 01:46 9,6 C 8,3 C 7,8 C 94 % 1002,8 hPa 0,0 l/m 0 min 0 min 0 W/m 16,1 km/h (3 Bft) 100,00 %
25.04.2019 01:48 9,6 C 8,3 C 7,8 C 94 % 1002,8 hPa 0,0 l/m 0 min 0 min 0 W/m 16,1 km/h (3 Bft) 95,65 %
25.04.2019 01:50 9,6 C 8,3 C 7,8 C 94 % 1002,8 hPa 0,0 l/m 0 min 0 min 0 W/m 9,7 km/h (2 Bft) 95,74 %
25.04.2019 01:52 9,6 C 8,3 C 7,8 C 94 % 1002,8 hPa 0,0 l/m 0 min 0 min 0 W/m 9,7 km/h (2 Bft) 95,74 %
25.04.2019 01:54 9,6 C 8,3 C 7,8 C 94 % 1002,8 hPa 0,0 l/m 0 min 0 min 0 W/m 9,7 km/h (2 Bft) 95,74 %
25.04.2019 01:56 9,6 C 8,3 C 7,8 C 94 % 1002,8 hPa 0,0 l/m 0 min 0 min 0 W/m 12,9 km/h (3 Bft) 95,74 %
25.04.2019 01:58 9,6 C 8,3 C 7,8 C 94 % 1002,9 hPa 0,0 l/m 0 min 0 min 0 W/m 16,1 km/h (3 Bft) 93,62 %
25.04.2019 02:00 9,6 C 8,3 C 7,8 C 94 % 1002,9 hPa 0,0 l/m 0 min 0 min 0 W/m 12,9 km/h (3 Bft) 95,65 %
25.04.2019 02:02 9,6 C 8,3 C 7,8 C 94 % 1002,9 hPa 0,0 l/m 0 min 0 min 0 W/m 12,9 km/h (3 Bft) 95,74 %
25.04.2019 02:04 9,5 C 8,3 C 7,8 C 94 % 1002,9 hPa 0,0 l/m 0 min 0 min 0 W/m 9,7 km/h (2 Bft) 95,74 %
25.04.2019 02:06 9,5 C 8,3 C 7,8 C 94 % 1003,0 hPa 0,0 l/m 0 min 0 min 0 W/m 12,9 km/h (3 Bft) 91,49 %
25.04.2019 02:08 9,5 C 8,3 C 7,8 C 94 % 1003,0 hPa 0,0 l/m 0 min 0 min 0 W/m 12,9 km/h (3 Bft) 93,62 %
25.04.2019 02:10 9,5 C 8,3 C 7,8 C 94 % 1002,9 hPa 0,0 l/m 0 min 0 min 0 W/m 22,5 km/h (4 Bft) 95,74 %
25.04.2019 02:12 9,4 C 8,3 C 7,8 C 94 % 1002,8 hPa 0,0 l/m 0 min 0 min 0 W/m 19,3 km/h (3 Bft) 93,48 %
25.04.2019 02:14 9,4 C 8,3 C 7,8 C 94 % 1002,8 hPa 0,0 l/m 0 min 0 min 0 W/m 16,1 km/h (3 Bft) 95,74 %
25.04.2019 02:16 9,4 C 8,3 C 7,8 C 94 % 1002,8 hPa 0,0 l/m 0 min 0 min 0 W/m 12,9 km/h (3 Bft) 95,74 %
25.04.2019 02:18 9,4 C 8,3 C 7,8 C 94 % 1002,8 hPa 0,0 l/m 0 min 0 min 0 W/m 9,7 km/h (2 Bft) 95,74 %
25.04.2019 02:20 9,4 C 8,3 C 7,8 C 94 % 1002,8 hPa 0,0 l/m 0 min 0 min 0 W/m 12,9 km/h (3 Bft) 95,74 %
25.04.2019 02:22 9,4 C 8,3 C 7,8 C 94 % 1002,8 hPa 0,0 l/m 0 min 0 min 0 W/m 12,9 km/h (3 Bft) 95,65 %
25.04.2019 02:24 9,3 C 8,3 C 7,8 C 94 % 1002,8 hPa 0,0 l/m 0 min 0 min 0 W/m 6,4 km/h (2 Bft) 93,62 %
25.04.2019 02:26 9,3 C 8,3 C 7,8 C 94 % 1002,8 hPa 0,0 l/m 0 min 0 min 0 W/m 16,1 km/h (3 Bft) 95,74 %
25.04.2019 02:28 9,3 C 8,3 C 7,8 C 94 % 1002,8 hPa 0,0 l/m 0 min 0 min 0 W/m 16,1 km/h (3 Bft) 95,74 %
25.04.2019 02:30 9,3 C 8,3 C 7,8 C 94 % 1002,8 hPa 0,0 l/m 0 min 0 min 0 W/m 16,1 km/h (3 Bft) 93,62 %
25.04.2019 02:32 9,3 C 8,3 C 7,8 C 94 % 1002,8 hPa 0,0 l/m 0 min 0 min 0 W/m 16,1 km/h (3 Bft) 95,74 %
25.04.2019 02:34 9,3 C 8,3 C 7,8 C 94 % 1002,9 hPa 0,0 l/m 0 min 0 min 0 W/m 12,9 km/h (3 Bft) 95,65 %
25.04.2019 02:36 9,3 C 8,3 C 7,8 C 94 % 1002,7 hPa 0,0 l/m 0 min 0 min 0 W/m 16,1 km/h (3 Bft) 95,74 %
25.04.2019 02:38 9,3 C 7,8 C 7,8 C 94 % 1002,7 hPa 0,0 l/m 0 min 0 min 0 W/m 12,9 km/h (3 Bft) 95,74 %
25.04.2019 02:40 9,2 C 7,8 C 7,8 C 94 % 1002,7 hPa 0,0 l/m 0 min 0 min 0 W/m 9,7 km/h (2 Bft) 97,87 %
25.04.2019 02:42 9,2 C 8,3 C 7,8 C 94 % 1002,8 hPa 0,0 l/m 0 min 0 min 0 W/m 16,1 km/h (3 Bft) 95,74 %
25.04.2019 02:44 9,2 C 7,8 C 7,8 C 94 % 1002,7 hPa 0,0 l/m 0 min 0 min 0 W/m 9,7 km/h (2 Bft) 97,87 %
25.04.2019 02:46 9,2 C 7,8 C 7,8 C 94 % 1002,6 hPa 0,0 l/m 0 min 0 min 0 W/m 6,4 km/h (2 Bft) 100,00 %
25.04.2019 02:48 9,2 C 8,3 C 7,8 C 94 % 1002,6 hPa 0,0 l/m 0 min 0 min 0 W/m 16,1 km/h (3 Bft) 97,87 %
25.04.2019 02:50 9,2 C 7,8 C 7,8 C 94 % 1002,6 hPa 0,0 l/m 0 min 0 min 0 W/m 9,7 km/h (2 Bft) 97,87 %
25.04.2019 02:52 9,2 C 7,8 C 7,8 C 94 % 1002,6 hPa 0,0 l/m 0 min 0 min 0 W/m 12,9 km/h (3 Bft) 95,74 %
25.04.2019 02:54 9,2 C 7,8 C 7,8 C 94 % 1002,6 hPa 0,0 l/m 0 min 0 min 0 W/m 9,7 km/h (2 Bft) 95,74 %
25.04.2019 02:56 9,2 C 7,8 C 7,2 C 94 % 1002,6 hPa 0,0 l/m 0 min 0 min 0 W/m 9,7 km/h (2 Bft) 97,87 %
25.04.2019 02:58 9,1 C 7,8 C 7,2 C 94 % 1002,7 hPa 0,0 l/m 0 min 0 min 0 W/m 9,7 km/h (2 Bft) 97,83 %
25.04.2019 03:00 9,1 C 7,8 C 7,2 C 94 % 1002,6 hPa 0,0 l/m 0 min 0 min 0 W/m 9,7 km/h (2 Bft) 97,87 %
25.04.2019 03:02 9,1 C 7,8 C 7,2 C 94 % 1002,6 hPa 0,0 l/m 0 min 0 min 0 W/m 12,9 km/h (3 Bft) 95,74 %
25.04.2019 03:04 9,1 C 7,8 C 7,2 C 94 % 1002,5 hPa 0,0 l/m 0 min 0 min 0 W/m 0,0 km/h (0 Bft) 97,87 %
25.04.2019 03:06 9,1 C 7,8 C 7,2 C 94 % 1002,6 hPa 0,0 l/m 0 min 0 min 0 W/m 9,7 km/h (2 Bft) 95,74 %
25.04.2019 03:08 9,1 C 7,8 C 7,2 C 94 % 1002,5 hPa 0,0 l/m 0 min 0 min 0 W/m 9,7 km/h (2 Bft) 97,14 %
25.04.2019 03:10 9,1 C 7,8 C 7,2 C 94 % 1002,5 hPa 0,0 l/m 0 min 0 min 0 W/m 3,2 km/h (1 Bft) 97,87 %
25.04.2019 03:12 9,1 C 7,8 C 7,2 C 94 % 1002,6 hPa 0,0 l/m 0 min 0 min 0 W/m 3,2 km/h (1 Bft) 97,87 %
25.04.2019 03:14 9,0 C 7,8 C 7,2 C 94 % 1002,7 hPa 0,0 l/m 0 min 0 min 0 W/m 3,2 km/h (1 Bft) 97,87 %
25.04.2019 03:16 9,0 C 7,8 C 7,2 C 94 % 1002,8 hPa 0,0 l/m 0 min 0 min 0 W/m 9,7 km/h (2 Bft) 95,74 %
25.04.2019 03:18 9,0 C 7,8 C 7,2 C 94 % 1002,8 hPa 0,0 l/m 0 min 0 min 0 W/m 6,4 km/h (2 Bft) 95,74 %
25.04.2019 03:20 9,0 C 7,8 C 7,2 C 94 % 1002,8 hPa 0,0 l/m 0 min 0 min 0 W/m 12,9 km/h (3 Bft) 97,83 %
25.04.2019 03:22 9,0 C 7,8 C 7,2 C 94 % 1002,8 hPa 0,0 l/m 0 min 0 min 0 W/m 6,4 km/h (2 Bft) 97,87 %
25.04.2019 03:24 8,9 C 7,8 C 7,2 C 94 % 1002,7 hPa 0,0 l/m 0 min 0 min 0 W/m 6,4 km/h (2 Bft) 97,87 %
25.04.2019 03:26 8,9 C 7,8 C 7,2 C 94 % 1002,7 hPa 0,0 l/m 0 min 0 min 0 W/m 9,7 km/h (2 Bft) 97,87 %
25.04.2019 03:28 8,9 C 7,8 C 7,2 C 94 % 1002,8 hPa 0,0 l/m 0 min 0 min 0 W/m 12,9 km/h (3 Bft) 97,87 %
25.04.2019 03:30 8,9 C 7,8 C 7,2 C 94 % 1002,8 hPa 0,0 l/m 0 min 0 min 0 W/m 16,1 km/h (3 Bft) 97,83 %
25.04.2019 03:32 8,9 C 7,8 C 7,2 C 94 % 1002,8 hPa 0,0 l/m 0 min 0 min 0 W/m 16,1 km/h (3 Bft) 97,87 %
25.04.2019 03:34 8,9 C 7,8 C 7,2 C 94 % 1002,8 hPa 0,0 l/m 0 min 0 min 0 W/m 16,1 km/h (3 Bft) 97,87 %
25.04.2019 03:36 8,9 C 7,8 C 7,2 C 94 % 1002,8 hPa 0,0 l/m 0 min 0 min 0 W/m 12,9 km/h (3 Bft) 100,00 %
25.04.2019 03:38 8,9 C 7,8 C 7,2 C 94 % 1002,8 hPa 0,0 l/m 0 min 0 min 0 W/m 6,4 km/h (2 Bft) 97,14 %
25.04.2019 03:40 8,9 C 7,8 C 7,2 C 95 % 1002,7 hPa 0,0 l/m 0 min 0 min 0 W/m 9,7 km/h (2 Bft) 100,00 %
25.04.2019 03:42 8,9 C 7,8 C 7,2 C 95 % 1002,8 hPa 0,0 l/m 0 min 0 min 0 W/m 6,4 km/h (2 Bft) 97,83 %
25.04.2019 03:44 8,9 C 7,8 C 7,2 C 95 % 1002,9 hPa 0,0 l/m 0 min 0 min 0 W/m 9,7 km/h (2 Bft) 100,00 %
25.04.2019 03:46 8,9 C 7,8 C 7,2 C 95 % 1002,9 hPa 0,0 l/m 0 min 0 min 0 W/m 19,3 km/h (3 Bft) 100,00 %
25.04.2019 03:48 8,9 C 7,8 C 7,2 C 95 % 1002,9 hPa 0,0 l/m 0 min 0 min 0 W/m 19,3 km/h (3 Bft) 95,74 %
25.04.2019 03:50 8,9 C 7,8 C 7,2 C 95 % 1002,9 hPa 0,0 l/m 0 min 0 min 0 W/m 19,3 km/h (3 Bft) 100,00 %
25.04.2019 03:52 8,9 C 7,8 C 7,2 C 95 % 1002,9 hPa 0,0 l/m 0 min 0 min 0 W/m 16,1 km/h (3 Bft) 100,00 %
25.04.2019 03:54 8,9 C 8,3 C 7,2 C 95 % 1002,9 hPa 0,0 l/m 0 min 0 min 0 W/m 22,5 km/h (4 Bft) 100,00 %
25.04.2019 03:56 8,9 C 7,8 C 7,2 C 95 % 1003,0 hPa 0,0 l/m 0 min 0 min 0 W/m 19,3 km/h (3 Bft) 97,87 %
25.04.2019 03:58 8,9 C 8,3 C 7,8 C 95 % 1003,0 hPa 0,0 l/m 0 min 0 min 0 W/m 19,3 km/h (3 Bft) 100,00 %
25.04.2019 04:00 8,9 C 8,3 C 7,2 C 95 % 1002,9 hPa 0,0 l/m 0 min 0 min 0 W/m 16,1 km/h (3 Bft) 100,00 %
25.04.2019 04:05 8,9 C 8,3 C 7,2 C 95 % 1002,8 hPa 0,0 l/m 0 min 0 min 0 W/m 22,5 km/h (4 Bft) 96,43 %
25.04.2019 04:06 8,9 C 8,3 C 7,2 C 95 % 1002,8 hPa 0,0 l/m 0 min 0 min 0 W/m 9,7 km/h (2 Bft) 100,00 %
25.04.2019 04:08 8,9 C 8,3 C 7,2 C 95 % 1002,9 hPa 0,0 l/m 0 min 0 min 0 W/m 12,9 km/h (3 Bft) 100,00 %
25.04.2019 04:10 8,9 C 8,3 C 7,2 C 95 % 1002,9 hPa 0,0 l/m 0 min 0 min 0 W/m 16,1 km/h (3 Bft) 100,00 %
25.04.2019 04:12 8,9 C 8,3 C 7,2 C 95 % 1002,9 hPa 0,0 l/m 0 min 0 min 0 W/m 19,3 km/h (3 Bft) 100,00 %
25.04.2019 04:14 8,9 C 8,3 C 7,2 C 95 % 1002,8 hPa 0,0 l/m 0 min 0 min 0 W/m 19,3 km/h (3 Bft) 100,00 %
25.04.2019 04:16 8,9 C 8,3 C 7,2 C 95 % 1002,8 hPa 0,0 l/m 0 min 0 min 0 W/m 25,7 km/h (4 Bft) 100,00 %
25.04.2019 04:18 8,9 C 8,3 C 7,2 C 95 % 1002,8 hPa 0,0 l/m 0 min 0 min 0 W/m 29,0 km/h (5 Bft) 100,00 %
25.04.2019 04:20 8,9 C 8,3 C 7,2 C 95 % 1002,9 hPa 0,0 l/m 0 min 0 min 0 W/m 12,9 km/h (3 Bft) 100,00 %
25.04.2019 04:22 8,9 C 8,3 C 7,2 C 95 % 1003,0 hPa 0,0 l/m 0 min 0 min 0 W/m 9,7 km/h (2 Bft) 100,00 %
25.04.2019 04:24 8,9 C 8,3 C 7,2 C 95 % 1003,1 hPa 0,0 l/m 0 min 0 min 0 W/m 16,1 km/h (3 Bft) 100,00 %
25.04.2019 04:26 8,9 C 8,3 C 7,2 C 95 % 1003,0 hPa 0,0 l/m 0 min 0 min 0 W/m 9,7 km/h (2 Bft) 97,87 %
25.04.2019 04:28 8,9 C 8,3 C 7,2 C 95 % 1003,1 hPa 0,0 l/m 0 min 0 min 0 W/m 9,7 km/h (2 Bft) 100,00 %
25.04.2019 04:30 8,9 C 8,3 C 7,2 C 95 % 1003,1 hPa 0,0 l/m 0 min 0 min 0 W/m 12,9 km/h (3 Bft) 100,00 %
25.04.2019 04:32 8,9 C 8,3 C 7,2 C 95 % 1003,2 hPa 0,0 l/m 0 min 0 min 0 W/m 16,1 km/h (3 Bft) 100,00 %
25.04.2019 04:34 8,9 C 8,3 C 7,2 C 95 % 1003,1 hPa 0,0 l/m 0 min 0 min 0 W/m 9,7 km/h (2 Bft) 95,74 %
25.04.2019 04:36 8,8 C 8,3 C 7,2 C 95 % 1003,2 hPa 0,0 l/m 0 min 0 min 0 W/m 12,9 km/h (3 Bft) 97,87 %
25.04.2019 04:38 8,8 C 8,3 C 7,2 C 95 % 1003,3 hPa 0,0 l/m 0 min 0 min 0 W/m 9,7 km/h (2 Bft) 97,87 %
25.04.2019 04:40 8,8 C 8,3 C 7,2 C 95 % 1003,2 hPa 0,0 l/m 0 min 0 min 0 W/m 22,5 km/h (4 Bft) 97,83 %
25.04.2019 04:42 8,8 C 8,3 C 7,2 C 95 % 1003,2 hPa 0,0 l/m 0 min 0 min 0 W/m 16,1 km/h (3 Bft) 97,87 %
25.04.2019 04:44 8,8 C 8,3 C 7,2 C 95 % 1003,3 hPa 0,0 l/m 0 min 0 min 0 W/m 16,1 km/h (3 Bft) 97,87 %
25.04.2019 04:46 8,8 C 8,3 C 7,2 C 95 % 1003,2 hPa 0,0 l/m 0 min 0 min 0 W/m 12,9 km/h (3 Bft) 97,87 %
25.04.2019 04:48 8,8 C 8,3 C 7,2 C 95 % 1003,3 hPa 0,0 l/m 0 min 0 min 0 W/m 22,5 km/h (4 Bft) 95,74 %
25.04.2019 04:50 8,8 C 8,3 C 7,2 C 95 % 1003,3 hPa 0,0 l/m 0 min 0 min 0 W/m 19,3 km/h (3 Bft) 97,87 %
25.04.2019 04:52 8,8 C 8,3 C 7,2 C 95 % 1003,3 hPa 0,0 l/m 0 min 0 min 0 W/m 16,1 km/h (3 Bft) 97,83 %
25.04.2019 04:54 8,8 C 8,3 C 7,2 C 95 % 1003,4 hPa 0,0 l/m 0 min 0 min 0 W/m 22,5 km/h (4 Bft) 97,87 %
25.04.2019 04:56 8,8 C 8,3 C 7,2 C 95 % 1003,3 hPa 0,0 l/m 0 min 0 min 0 W/m 9,7 km/h (2 Bft) 97,87 %
25.04.2019 04:58 8,8 C 8,3 C 7,2 C 95 % 1003,3 hPa 0,0 l/m 0 min 0 min 0 W/m 25,7 km/h (4 Bft) 97,87 %
25.04.2019 05:00 8,8 C 8,3 C 7,2 C 95 % 1003,2 hPa 0,0 l/m 0 min 0 min 0 W/m 12,9 km/h (3 Bft) 97,87 %
25.04.2019 05:02 8,8 C 8,3 C 7,2 C 95 % 1003,3 hPa 0,0 l/m 0 min 0 min 0 W/m 9,7 km/h (2 Bft) 97,87 %
25.04.2019 05:04 8,8 C 8,3 C 7,2 C 95 % 1003,4 hPa 0,0 l/m 0 min 0 min 0 W/m 22,5 km/h (4 Bft) 97,83 %
25.04.2019 05:05 8,8 C 8,3 C 7,2 C 95 % 1003,4 hPa 0,0 l/m 0 min 0 min 0 W/m 22,5 km/h (4 Bft) 100,00 %
25.04.2019 05:10 8,8 C 8,3 C 7,2 C 95 % 1003,1 hPa 0,0 l/m 0 min 0 min 0 W/m 19,3 km/h (3 Bft) 100,00 %
25.04.2019 05:12 8,8 C 8,3 C 7,2 C 95 % 1003,0 hPa 0,0 l/m 0 min 0 min 0 W/m 16,1 km/h (3 Bft) 100,00 %
25.04.2019 05:14 8,8 C 8,3 C 7,2 C 95 % 1003,0 hPa 0,0 l/m 0 min 0 min 0 W/m 22,5 km/h (4 Bft) 97,87 %
25.04.2019 05:20 8,8 C 8,3 C 7,2 C 94 % 1003,1 hPa 0,0 l/m 0 min 0 min 0 W/m 22,5 km/h (4 Bft) 100,00 %
25.04.2019 05:22 8,8 C 8,3 C 7,8 C 94 % 1003,1 hPa 0,0 l/m 0 min 0 min 0 W/m 19,3 km/h (3 Bft) 100,00 %
25.04.2019 05:24 8,8 C 8,3 C 7,8 C 94 % 1003,0 hPa 0,0 l/m 0 min 0 min 0 W/m 22,5 km/h (4 Bft) 93,48 %
25.04.2019 05:26 8,9 C 8,3 C 7,8 C 95 % 1003,0 hPa 0,0 l/m 0 min 0 min 0 W/m 12,9 km/h (3 Bft) 97,87 %
25.04.2019 05:28 8,9 C 8,3 C 7,8 C 94 % 1003,0 hPa 0,0 l/m 0 min 0 min 0 W/m 16,1 km/h (3 Bft) 97,87 %
25.04.2019 05:30 8,9 C 8,9 C 7,8 C 94 % 1003,0 hPa 0,0 l/m 0 min 0 min 0 W/m 16,1 km/h (3 Bft) 93,62 %
25.04.2019 05:32 8,9 C 8,3 C 7,8 C 94 % 1003,1 hPa 0,0 l/m 0 min 0 min 0 W/m 16,1 km/h (3 Bft) 95,74 %
25.04.2019 05:34 8,9 C 8,3 C 7,8 C 94 % 1003,1 hPa 0,0 l/m 0 min 0 min 0 W/m 9,7 km/h (2 Bft) 97,87 %
25.04.2019 05:36 8,9 C 8,3 C 7,8 C 94 % 1003,0 hPa 0,0 l/m 0 min 0 min 0 W/m 9,7 km/h (2 Bft) 93,48 %
25.04.2019 05:38 8,9 C 8,3 C 7,8 C 94 % 1003,0 hPa 0,0 l/m 0 min 0 min 0 W/m 22,5 km/h (4 Bft) 95,74 %
25.04.2019 05:40 8,9 C 8,3 C 7,8 C 94 % 1003,0 hPa 0,0 l/m 0 min 0 min 0 W/m 16,1 km/h (3 Bft) 95,74 %
25.04.2019 05:42 8,9 C 8,3 C 7,8 C 94 % 1003,0 hPa 0,0 l/m 0 min 0 min 0 W/m 22,5 km/h (4 Bft) 95,74 %
25.04.2019 05:44 8,9 C 8,9 C 7,8 C 94 % 1003,0 hPa 0,0 l/m 0 min 0 min 0 W/m 29,0 km/h (5 Bft) 95,74 %
25.04.2019 05:46 9,0 C 8,9 C 7,8 C 94 % 1003,0 hPa 0,0 l/m 0 min 0 min 0 W/m 12,9 km/h (3 Bft) 95,74 %
25.04.2019 05:48 9,0 C 8,9 C 7,8 C 93 % 1003,0 hPa 0,0 l/m 0 min 0 min 0 W/m 22,5 km/h (4 Bft) 93,48 %
25.04.2019 05:50 9,0 C 8,9 C 7,8 C 93 % 1003,0 hPa 0,0 l/m 0 min 0 min 0 W/m 16,1 km/h (3 Bft) 95,74 %
25.04.2019 05:52 9,0 C 8,9 C 7,8 C 93 % 1003,0 hPa 0,0 l/m 0 min 0 min 0 W/m 29,0 km/h (5 Bft) 93,62 %
25.04.2019 05:54 9,1 C 8,9 C 7,8 C 93 % 1003,0 hPa 0,0 l/m 0 min 0 min 0 W/m 16,1 km/h (3 Bft) 95,74 %
25.04.2019 05:56 9,1 C 8,9 C 7,8 C 93 % 1003,0 hPa 0,0 l/m 0 min 0 min 0 W/m 22,5 km/h (4 Bft) 93,62 %
25.04.2019 05:58 9,1 C 8,9 C 7,8 C 93 % 1003,0 hPa 0,0 l/m 0 min 0 min 0 W/m 19,3 km/h (3 Bft) 95,74 %
25.04.2019 06:00 9,1 C 8,9 C 7,8 C 93 % 1003,0 hPa 0,0 l/m 0 min 0 min 0 W/m 19,3 km/h (3 Bft) 95,65 %
25.04.2019 06:02 9,1 C 8,9 C 7,8 C 92 % 1003,1 hPa 0,0 l/m 0 min 0 min 0 W/m 12,9 km/h (3 Bft) 97,87 %
25.04.2019 06:04 9,1 C 8,3 C 7,8 C 93 % 1003,0 hPa 0,0 l/m 0 min 0 min 0 W/m 16,1 km/h (3 Bft) 95,74 %
25.04.2019 06:08 9,2 C 8,9 C 7,8 C 92 % 1003,1 hPa 0,0 l/m 0 min 0 min 0 W/m 25,7 km/h (4 Bft) 92,55 %
25.04.2019 06:10 9,2 C 8,3 C 7,8 C 92 % 1003,1 hPa 0,0 l/m 0 min 0 min 0 W/m 16,1 km/h (3 Bft) 95,74 %
25.04.2019 06:12 9,2 C 8,3 C 7,8 C 92 % 1003,2 hPa 0,0 l/m 0 min 0 min 0 W/m 22,5 km/h (4 Bft) 95,65 %
25.04.2019 06:14 9,2 C 8,3 C 7,8 C 92 % 1003,3 hPa 0,0 l/m 0 min 0 min 0 W/m 22,5 km/h (4 Bft) 95,74 %
25.04.2019 06:16 9,2 C 8,3 C 7,8 C 92 % 1003,3 hPa 0,0 l/m 0 min 0 min 0 W/m 22,5 km/h (4 Bft) 95,74 %
25.04.2019 06:18 9,2 C 8,3 C 7,8 C 92 % 1003,4 hPa 0,0 l/m 0 min 0 min 0 W/m 19,3 km/h (3 Bft) 100,00 %
25.04.2019 06:20 9,2 C 8,3 C 7,8 C 92 % 1003,4 hPa 0,0 l/m 0 min 0 min 3 W/m 6,4 km/h (2 Bft) 95,74 %
25.04.2019 06:22 9,2 C 8,3 C 7,8 C 92 % 1003,3 hPa 0,0 l/m 0 min 0 min 5 W/m 16,1 km/h (3 Bft) 100,00 %
25.04.2019 06:24 9,2 C 8,3 C 7,8 C 91 % 1003,3 hPa 0,0 l/m 0 min 0 min 5 W/m 19,3 km/h (3 Bft) 100,00 %
25.04.2019 06:26 9,2 C 8,3 C 7,8 C 91 % 1003,2 hPa 0,0 l/m 0 min 0 min 7 W/m 16,1 km/h (3 Bft) 93,62 %
25.04.2019 06:28 9,2 C 8,3 C 7,8 C 91 % 1003,2 hPa 0,0 l/m 0 min 0 min 8 W/m 16,1 km/h (3 Bft) 97,87 %
25.04.2019 06:30 9,1 C 8,3 C 7,8 C 91 % 1003,2 hPa 0,0 l/m 0 min 0 min 10 W/m 16,1 km/h (3 Bft) 100,00 %
25.04.2019 06:32 9,1 C 8,3 C 7,8 C 91 % 1003,2 hPa 0,0 l/m 0 min 0 min 11 W/m 19,3 km/h (3 Bft) 97,87 %
25.04.2019 06:34 9,1 C 8,3 C 7,8 C 91 % 1003,2 hPa 0,0 l/m 0 min 0 min 12 W/m 22,5 km/h (4 Bft) 100,00 %
25.04.2019 06:36 9,1 C 8,3 C 7,8 C 91 % 1003,2 hPa 0,0 l/m 0 min 0 min 14 W/m 16,1 km/h (3 Bft) 97,83 %
25.04.2019 06:38 9,1 C 8,3 C 7,8 C 91 % 1003,3 hPa 0,0 l/m 0 min 0 min 15 W/m 9,7 km/h (2 Bft) 100,00 %
25.04.2019 06:40 9,1 C 8,3 C 7,8 C 91 % 1003,3 hPa 0,0 l/m 0 min 0 min 17 W/m 16,1 km/h (3 Bft) 100,00 %
25.04.2019 06:42 9,1 C 8,9 C 7,8 C 91 % 1003,3 hPa 0,0 l/m 0 min 0 min 18 W/m 16,1 km/h (3 Bft) 100,00 %
25.04.2019 06:44 9,1 C 8,9 C 7,8 C 91 % 1003,2 hPa 0,0 l/m 0 min 0 min 20 W/m 12,9 km/h (3 Bft) 95,74 %
25.04.2019 06:46 9,1 C 8,9 C 7,8 C 91 % 1003,2 hPa 0,0 l/m 0 min 0 min 22 W/m 19,3 km/h (3 Bft) 100,00 %
25.04.2019 06:48 9,1 C 8,9 C 7,8 C 91 % 1003,3 hPa 0,0 l/m 0 min 0 min 23 W/m 16,1 km/h (3 Bft) 100,00 %
25.04.2019 06:50 9,2 C 8,9 C 7,8 C 91 % 1003,5 hPa 0,0 l/m 0 min 0 min 25 W/m 22,5 km/h (4 Bft) 100,00 %
25.04.2019 06:52 9,1 C 8,9 C 7,8 C 91 % 1003,4 hPa 0,0 l/m 0 min 0 min 25 W/m 16,1 km/h (3 Bft) 100,00 %
25.04.2019 06:54 9,2 C 8,9 C 7,8 C 91 % 1003,4 hPa 0,0 l/m 0 min 0 min 25 W/m 22,5 km/h (4 Bft) 100,00 %
25.04.2019 06:56 9,2 C 8,9 C 7,8 C 91 % 1003,5 hPa 0,0 l/m 0 min 0 min 27 W/m 22,5 km/h (4 Bft) 97,87 %
25.04.2019 06:58 9,2 C 8,9 C 7,8 C 91 % 1003,4 hPa 0,0 l/m 0 min 0 min 29 W/m 22,5 km/h (4 Bft) 100,00 %
25.04.2019 07:00 9,2 C 8,9 C 8,3 C 91 % 1003,5 hPa 0,0 l/m 0 min 0 min 31 W/m 25,7 km/h (4 Bft) 100,00 %
25.04.2019 07:02 9,2 C 8,9 C 8,3 C 91 % 1003,5 hPa 0,0 l/m 0 min 0 min 33 W/m 16,1 km/h (3 Bft) 97,87 %
25.04.2019 07:04 9,3 C 8,9 C 8,3 C 91 % 1003,5 hPa 0,0 l/m 0 min 0 min 34 W/m 12,9 km/h (3 Bft) 97,87 %
25.04.2019 07:06 9,3 C 9,4 C 8,3 C 91 % 1003,7 hPa 0,0 l/m 0 min 0 min 37 W/m 22,5 km/h (4 Bft) 97,87 %
25.04.2019 07:08 9,3 C 9,4 C 8,3 C 91 % 1003,7 hPa 0,0 l/m 0 min 0 min 40 W/m 22,5 km/h (4 Bft) 97,87 %
25.04.2019 07:10 9,3 C 9,4 C 8,3 C 91 % 1003,7 hPa 0,0 l/m 0 min 0 min 40 W/m 19,3 km/h (3 Bft) 97,83 %
25.04.2019 07:12 9,4 C 9,4 C 8,3 C 90 % 1003,7 hPa 0,0 l/m 0 min 0 min 38 W/m 22,5 km/h (4 Bft) 95,74 %
25.04.2019 07:14 9,4 C 9,4 C 8,3 C 90 % 1003,7 hPa 0,0 l/m 0 min 0 min 37 W/m 16,1 km/h (3 Bft) 95,74 %
25.04.2019 07:16 9,4 C 9,4 C 8,3 C 90 % 1003,6 hPa 0,0 l/m 0 min 0 min 38 W/m 16,1 km/h (3 Bft) 100,00 %
25.04.2019 07:18 9,4 C 9,4 C 8,3 C 90 % 1003,7 hPa 0,0 l/m 0 min 0 min 37 W/m 12,9 km/h (3 Bft) 100,00 %
25.04.2019 07:20 9,4 C 9,4 C 8,3 C 90 % 1003,6 hPa 0,0 l/m 0 min 0 min 40 W/m 12,9 km/h (3 Bft) 97,87 %
25.04.2019 07:22 9,4 C 9,4 C 8,3 C 90 % 1003,5 hPa 0,0 l/m 0 min 0 min 44 W/m 19,3 km/h (3 Bft) 97,83 %
25.04.2019 07:24 9,5 C 9,4 C 8,3 C 90 % 1003,4 hPa 0,0 l/m 0 min 0 min 43 W/m 19,3 km/h (3 Bft) 97,87 %
25.04.2019 07:26 9,5 C 9,4 C 8,3 C 90 % 1003,4 hPa 0,0 l/m 0 min 0 min 45 W/m 22,5 km/h (4 Bft) 95,74 %
25.04.2019 07:28 9,6 C 9,4 C 8,9 C 90 % 1003,4 hPa 0,0 l/m 0 min 0 min 49 W/m 25,7 km/h (4 Bft) 97,87 %
25.04.2019 07:30 9,6 C 9,4 C 8,9 C 90 % 1003,4 hPa 0,0 l/m 0 min 0 min 54 W/m 25,7 km/h (4 Bft) 97,87 %
25.04.2019 07:32 9,6 C 9,4 C 8,9 C 90 % 1003,5 hPa 0,0 l/m 0 min 2 min 60 W/m 29,0 km/h (5 Bft) 97,87 %
25.04.2019 07:34 9,6 C 10,0 C 8,9 C 90 % 1003,5 hPa 0,2 l/m 0 min 2 min 65 W/m 35,4 km/h (5 Bft) 97,83 %
25.04.2019 07:36 9,7 C 10,0 C 8,9 C 89 % 1003,5 hPa 0,0 l/m 0 min 0 min 71 W/m 22,5 km/h (4 Bft) 97,87 %
25.04.2019 07:38 9,7 C 10,0 C 9,4 C 89 % 1003,5 hPa 0,0 l/m 0 min 0 min 77 W/m 19,3 km/h (3 Bft) 97,87 %
25.04.2019 07:40 9,8 C 10,0 C 9,4 C 89 % 1003,5 hPa 0,0 l/m 0 min 0 min 74 W/m 19,3 km/h (3 Bft) 97,87 %
25.04.2019 07:42 9,8 C 10,0 C 9,4 C 89 % 1003,5 hPa 0,0 l/m 0 min 0 min 70 W/m 29,0 km/h (5 Bft) 97,87 %
25.04.2019 07:44 9,8 C 10,0 C 9,4 C 89 % 1003,4 hPa 0,0 l/m 0 min 0 min 69 W/m 25,7 km/h (4 Bft) 97,87 %
25.04.2019 07:46 9,9 C 10,0 C 9,4 C 88 % 1003,2 hPa 0,0 l/m 0 min 0 min 69 W/m 29,0 km/h (5 Bft) 97,83 %
25.04.2019 07:48 9,9 C 10,0 C 9,4 C 88 % 1003,2 hPa 0,0 l/m 0 min 0 min 69 W/m 22,5 km/h (4 Bft) 95,74 %
25.04.2019 07:50 9,9 C 10,0 C 9,4 C 88 % 1003,4 hPa 0,0 l/m 0 min 0 min 67 W/m 19,3 km/h (3 Bft) 97,87 %
25.04.2019 07:52 10,0 C 10,0 C 9,4 C 88 % 1003,4 hPa 0,0 l/m 0 min 0 min 65 W/m 22,5 km/h (4 Bft) 93,62 %
25.04.2019 07:54 10,1 C 10,0 C 9,4 C 88 % 1003,5 hPa 0,0 l/m 0 min 0 min 67 W/m 22,5 km/h (4 Bft) 97,87 %
25.04.2019 07:56 10,1 C 10,0 C 9,4 C 88 % 1003,6 hPa 0,0 l/m 0 min 0 min 69 W/m 22,5 km/h (4 Bft) 97,87 %
25.04.2019 07:58 10,1 C 10,6 C 9,4 C 87 % 1003,6 hPa 0,0 l/m 0 min 0 min 73 W/m 16,1 km/h (3 Bft) 95,65 %
25.04.2019 08:00 10,2 C 10,6 C 9,4 C 88 % 1003,7 hPa 0,0 l/m 0 min 0 min 82 W/m 16,1 km/h (3 Bft) 59,57 %
25.04.2019 08:02 10,2 C 10,6 C 9,4 C 88 % 1003,9 hPa 0,0 l/m 0 min 0 min 91 W/m 25,7 km/h (4 Bft) 93,94 %
25.04.2019 08:04 10,2 C 10,6 C 10,0 C 87 % 1003,9 hPa 0,0 l/m 0 min 0 min 100 W/m 29,0 km/h (5 Bft) 97,87 %
25.04.2019 08:06 10,3 C 10,6 C 10,0 C 87 % 1003,9 hPa 0,0 l/m 0 min 0 min 102 W/m 29,0 km/h (5 Bft) 93,22 %
25.04.2019 08:08 10,3 C 10,6 C 10,0 C 87 % 1004,0 hPa 0,0 l/m 0 min 0 min 99 W/m 29,0 km/h (5 Bft) 97,14 %
25.04.2019 08:10 10,4 C 10,6 C 10,0 C 87 % 1003,9 hPa 0,0 l/m 0 min 0 min 97 W/m 29,0 km/h (5 Bft) 97,87 %
25.04.2019 08:12 10,4 C 10,6 C 10,0 C 87 % 1003,9 hPa 0,0 l/m 0 min 0 min 96 W/m 22,5 km/h (4 Bft) 93,48 %
25.04.2019 08:14 10,4 C 10,6 C 10,0 C 87 % 1003,9 hPa 0,0 l/m 0 min 0 min 98 W/m 29,0 km/h (5 Bft) 95,74 %
25.04.2019 08:16 10,5 C 10,6 C 10,0 C 86 % 1003,9 hPa 0,0 l/m 0 min 0 min 99 W/m 19,3 km/h (3 Bft) 97,87 %
25.04.2019 08:18 10,5 C 10,6 C 10,0 C 86 % 1004,0 hPa 0,0 l/m 0 min 0 min 103 W/m 16,1 km/h (3 Bft) 97,87 %
25.04.2019 08:20 10,6 C 10,6 C 10,0 C 86 % 1004,0 hPa 0,0 l/m 0 min 0 min 104 W/m 16,1 km/h (3 Bft) 95,74 %
25.04.2019 08:22 10,6 C 10,6 C 10,0 C 86 % 1004,0 hPa 0,0 l/m 0 min 0 min 102 W/m 22,5 km/h (4 Bft) 95,74 %
25.04.2019 08:24 10,6 C 10,6 C 10,0 C 86 % 1004,0 hPa 0,0 l/m 0 min 0 min 92 W/m 32,2 km/h (5 Bft) 97,83 %
25.04.2019 08:26 10,6 C 10,6 C 10,0 C 86 % 1004,0 hPa 0,0 l/m 0 min 0 min 86 W/m 16,1 km/h (3 Bft) 97,87 %
25.04.2019 08:28 10,7 C 10,6 C 10,0 C 86 % 1004,0 hPa 0,0 l/m 0 min 0 min 78 W/m 12,9 km/h (3 Bft) 96,61 %
25.04.2019 08:30 10,7 C 10,6 C 10,0 C 86 % 1004,0 hPa 0,0 l/m 0 min 0 min 72 W/m 29,0 km/h (5 Bft) 97,87 %
25.04.2019 08:32 10,7 C 10,6 C 10,0 C 86 % 1003,8 hPa 0,0 l/m 0 min 0 min 70 W/m 22,5 km/h (4 Bft) 91,30 %
25.04.2019 08:34 10,7 C 10,6 C 10,0 C 86 % 1003,8 hPa 0,0 l/m 0 min 0 min 74 W/m 25,7 km/h (4 Bft) 97,87 %
25.04.2019 08:36 10,7 C 10,6 C 10,0 C 86 % 1003,9 hPa 0,0 l/m 0 min 0 min 84 W/m 22,5 km/h (4 Bft) 95,74 %
25.04.2019 08:38 10,7 C 10,6 C 10,0 C 86 % 1004,0 hPa 0,0 l/m 0 min 0 min 90 W/m 29,0 km/h (5 Bft) 93,62 %
25.04.2019 08:40 10,7 C 10,6 C 10,0 C 86 % 1004,0 hPa 0,0 l/m 0 min 0 min 95 W/m 22,5 km/h (4 Bft) 95,74 %
25.04.2019 08:42 10,7 C 10,6 C 10,0 C 86 % 1004,0 hPa 0,0 l/m 0 min 0 min 98 W/m 16,1 km/h (3 Bft) 93,62 %
25.04.2019 08:44 10,7 C 11,1 C 10,0 C 86 % 1004,0 hPa 0,0 l/m 0 min 0 min 108 W/m 19,3 km/h (3 Bft) 95,65 %
25.04.2019 08:46 10,8 C 11,7 C 10,0 C 86 % 1004,0 hPa 0,0 l/m 0 min 0 min 151 W/m 22,5 km/h (4 Bft) 97,87 %
25.04.2019 08:48 10,8 C 12,8 C 10,6 C 86 % 1004,1 hPa 0,0 l/m 2 min 0 min 297 W/m 16,1 km/h (3 Bft) 97,87 %
25.04.2019 08:50 10,8 C 13,9 C 10,6 C 86 % 1004,0 hPa 0,0 l/m 2 min 0 min 276 W/m 16,1 km/h (3 Bft) 97,87 %
25.04.2019 08:52 10,9 C 13,9 C 11,1 C 86 % 1003,9 hPa 0,0 l/m 2 min 0 min 360 W/m 16,1 km/h (3 Bft) 93,62 %
25.04.2019 08:54 11,0 C 13,3 C 11,1 C 86 % 1004,0 hPa 0,0 l/m 2 min 0 min 320 W/m 12,9 km/h (3 Bft) 95,74 %
25.04.2019 08:56 11,1 C 13,3 C 11,1 C 86 % 1004,0 hPa 0,0 l/m 2 min 0 min 270 W/m 22,5 km/h (4 Bft) 97,83 %
25.04.2019 08:58 11,2 C 13,9 C 11,1 C 86 % 1004,1 hPa 0,0 l/m 2 min 0 min 362 W/m 12,9 km/h (3 Bft) 97,87 %
25.04.2019 09:00 11,2 C 13,3 C 11,7 C 86 % 1004,2 hPa 0,0 l/m 2 min 0 min 246 W/m 29,0 km/h (5 Bft) 95,74 %
25.04.2019 09:02 11,3 C 12,8 C 11,7 C 85 % 1004,2 hPa 0,0 l/m 0 min 0 min 164 W/m 16,1 km/h (3 Bft) 97,87 %
25.04.2019 09:04 11,4 C 12,2 C 11,1 C 85 % 1004,1 hPa 0,0 l/m 0 min 0 min 159 W/m 22,5 km/h (4 Bft) 97,87 %
25.04.2019 09:06 11,4 C 12,2 C 11,7 C 85 % 1004,1 hPa 0,0 l/m 0 min 0 min 165 W/m 16,1 km/h (3 Bft) 97,87 %
25.04.2019 09:08 11,5 C 13,3 C 12,2 C 84 % 1004,1 hPa 0,0 l/m 0 min 0 min 174 W/m 12,9 km/h (3 Bft) 97,83 %
25.04.2019 09:10 11,6 C 13,9 C 12,8 C 84 % 1004,1 hPa 0,0 l/m 2 min 0 min 256 W/m 22,5 km/h (4 Bft) 97,87 %
25.04.2019 09:12 11,7 C 13,9 C 12,8 C 84 % 1004,1 hPa 0,0 l/m 2 min 0 min 275 W/m 16,1 km/h (3 Bft) 97,14 %
25.04.2019 09:14 11,7 C 13,9 C 12,8 C 84 % 1004,1 hPa 0,0 l/m 2 min 0 min 216 W/m 22,5 km/h (4 Bft) 97,87 %
25.04.2019 09:16 11,8 C 12,8 C 12,2 C 84 % 1004,2 hPa 0,0 l/m 0 min 0 min 179 W/m 16,1 km/h (3 Bft) 97,87 %
25.04.2019 09:18 11,8 C 12,8 C 12,2 C 84 % 1004,2 hPa 0,0 l/m 0 min 0 min 165 W/m 16,1 km/h (3 Bft) 97,87 %
25.04.2019 09:20 11,9 C 12,8 C 12,2 C 84 % 1004,3 hPa 0,0 l/m 0 min 0 min 186 W/m 9,7 km/h (2 Bft) 97,87 %
25.04.2019 09:22 11,9 C 12,8 C 12,2 C 83 % 1004,4 hPa 0,0 l/m 0 min 0 min 172 W/m 12,9 km/h (3 Bft) 100,00 %
25.04.2019 09:24 12,0 C 12,8 C 12,2 C 83 % 1004,5 hPa 0,0 l/m 0 min 0 min 165 W/m 16,1 km/h (3 Bft) 100,00 %
25.04.2019 09:26 12,0 C 12,2 C 11,7 C 83 % 1004,6 hPa 0,0 l/m 0 min 0 min 151 W/m 16,1 km/h (3 Bft) 100,00 %
25.04.2019 09:28 12,1 C 12,8 C 11,7 C 83 % 1004,6 hPa 0,0 l/m 0 min 0 min 140 W/m 9,7 km/h (2 Bft) 100,00 %
25.04.2019 09:30 12,1 C 12,8 C 11,7 C 82 % 1004,6 hPa 0,0 l/m 0 min 0 min 140 W/m 12,9 km/h (3 Bft) 100,00 %
25.04.2019 09:32 12,1 C 12,8 C 11,7 C 82 % 1004,5 hPa 0,0 l/m 0 min 0 min 145 W/m 16,1 km/h (3 Bft) 100,00 %
25.04.2019 09:34 12,2 C 12,8 C 11,7 C 82 % 1004,4 hPa 0,0 l/m 0 min 0 min 149 W/m 22,5 km/h (4 Bft) 100,00 %
25.04.2019 09:36 12,2 C 12,2 C 11,7 C 81 % 1004,4 hPa 0,0 l/m 0 min 0 min 147 W/m 25,7 km/h (4 Bft) 100,00 %
25.04.2019 09:38 12,2 C 12,2 C 11,7 C 81 % 1004,3 hPa 0,0 l/m 0 min 0 min 136 W/m 29,0 km/h (5 Bft) 100,00 %
25.04.2019 09:40 12,2 C 12,2 C 11,7 C 81 % 1004,4 hPa 0,0 l/m 0 min 0 min 147 W/m 35,4 km/h (5 Bft) 100,00 %
25.04.2019 09:42 12,3 C 12,8 C 11,7 C 81 % 1004,5 hPa 0,0 l/m 0 min 0 min 157 W/m 25,7 km/h (4 Bft) 100,00 %
25.04.2019 09:44 12,3 C 12,8 C 12,2 C 81 % 1004,3 hPa 0,0 l/m 0 min 0 min 189 W/m 22,5 km/h (4 Bft) 100,00 %
25.04.2019 09:46 12,3 C 12,8 C 12,2 C 81 % 1004,4 hPa 0,0 l/m 0 min 0 min 203 W/m 22,5 km/h (4 Bft) 100,00 %
25.04.2019 09:48 12,4 C 12,8 C 12,2 C 81 % 1004,4 hPa 0,0 l/m 0 min 0 min 176 W/m 22,5 km/h (4 Bft) 100,00 %
25.04.2019 09:50 12,4 C 12,8 C 12,2 C 81 % 1004,5 hPa 0,0 l/m 0 min 0 min 160 W/m 16,1 km/h (3 Bft) 100,00 %
25.04.2019 09:52 12,4 C 12,8 C 12,2 C 81 % 1004,4 hPa 0,0 l/m 0 min 0 min 160 W/m 19,3 km/h (3 Bft) 97,87 %
25.04.2019 09:54 12,5 C 13,3 C 12,8 C 81 % 1004,4 hPa 0,0 l/m 0 min 0 min 204 W/m 16,1 km/h (3 Bft) 100,00 %
25.04.2019 09:56 12,5 C 16,1 C 15,0 C 81 % 1004,5 hPa 0,0 l/m 0 min 0 min 226 W/m 16,1 km/h (3 Bft) 100,00 %
25.04.2019 09:58 12,6 C 18,3 C 17,2 C 81 % 1004,5 hPa 0,0 l/m 2 min 0 min 606 W/m 19,3 km/h (3 Bft) 97,87 %
25.04.2019 10:00 12,8 C 18,9 C 18,3 C 81 % 1004,5 hPa 0,0 l/m 2 min 0 min 624 W/m 19,3 km/h (3 Bft) 97,87 %
25.04.2019 10:02 13,0 C 18,9 C 18,9 C 81 % 1004,4 hPa 0,0 l/m 2 min 0 min 639 W/m 22,5 km/h (4 Bft) 98,11 %
25.04.2019 10:04 13,2 C 20,0 C 20,0 C 80 % 1004,4 hPa 0,0 l/m 2 min 0 min 659 W/m 16,1 km/h (3 Bft) 100,00 %
25.04.2019 10:06 13,4 C 19,4 C 20,0 C 79 % 1004,4 hPa 0,0 l/m 2 min 0 min 720 W/m 29,0 km/h (5 Bft) 96,61 %
25.04.2019 10:08 13,7 C 19,4 C 20,6 C 79 % 1004,5 hPa 0,0 l/m 2 min 0 min 730 W/m 29,0 km/h (5 Bft) 100,00 %
25.04.2019 10:10 13,9 C 20,0 C 20,0 C 78 % 1004,4 hPa 0,0 l/m 2 min 0 min 702 W/m 25,7 km/h (4 Bft) 100,00 %
25.04.2019 10:12 14,2 C 20,6 C 20,6 C 77 % 1004,5 hPa 0,0 l/m 2 min 0 min 735 W/m 22,5 km/h (4 Bft) 100,00 %
25.04.2019 10:14 14,3 C 18,9 C 18,9 C 77 % 1004,5 hPa 0,0 l/m 2 min 0 min 676 W/m 29,0 km/h (5 Bft) 100,00 %
25.04.2019 10:16 14,4 C 16,7 C 17,2 C 75 % 1004,5 hPa 0,0 l/m 2 min 0 min 370 W/m 25,7 km/h (4 Bft) 100,00 %
25.04.2019 10:18 14,6 C 15,6 C 16,1 C 74 % 1004,5 hPa 0,0 l/m 0 min 0 min 276 W/m 29,0 km/h (5 Bft) 97,87 %
25.04.2019 10:20 14,6 C 15,6 C 15,6 C 73 % 1004,6 hPa 0,0 l/m 2 min 0 min 303 W/m 25,7 km/h (4 Bft) 100,00 %
25.04.2019 10:22 14,6 C 17,2 C 16,7 C 73 % 1004,5 hPa 0,0 l/m 2 min 0 min 407 W/m 22,5 km/h (4 Bft) 100,00 %
25.04.2019 10:24 14,7 C 18,9 C 18,9 C 74 % 1004,4 hPa 0,0 l/m 2 min 0 min 732 W/m 22,5 km/h (4 Bft) 97,87 %
25.04.2019 10:26 14,8 C 19,4 C 18,9 C 74 % 1004,5 hPa 0,0 l/m 2 min 0 min 632 W/m 25,7 km/h (4 Bft) 97,87 %
25.04.2019 10:28 14,9 C 19,4 C 18,9 C 73 % 1004,6 hPa 0,0 l/m 2 min 0 min 552 W/m 16,1 km/h (3 Bft) 95,74 %
25.04.2019 10:30 15,1 C 20,0 C 20,0 C 73 % 1004,5 hPa 0,0 l/m 2 min 0 min 635 W/m 45,1 km/h (6 Bft) 97,87 %
25.04.2019 10:32 15,2 C 19,4 C 19,4 C 71 % 1004,6 hPa 0,0 l/m 2 min 0 min 764 W/m 35,4 km/h (5 Bft) 97,87 %
25.04.2019 10:34 15,3 C 19,4 C 19,4 C 71 % 1004,5 hPa 0,0 l/m 2 min 0 min 567 W/m 29,0 km/h (5 Bft) 97,87 %
25.04.2019 10:36 15,4 C 19,4 C 19,4 C 71 % 1004,7 hPa 0,0 l/m 2 min 0 min 685 W/m 25,7 km/h (4 Bft) 95,74 %
25.04.2019 10:38 15,6 C 17,8 C 17,8 C 71 % 1004,6 hPa 0,0 l/m 2 min 0 min 465 W/m 25,7 km/h (4 Bft) 95,74 %
25.04.2019 10:40 15,6 C 16,7 C 16,7 C 70 % 1004,6 hPa 0,0 l/m 2 min 0 min 312 W/m 25,7 km/h (4 Bft) 97,87 %
25.04.2019 10:42 15,6 C 15,6 C 15,6 C 69 % 1004,6 hPa 0,0 l/m 0 min 0 min 297 W/m 29,0 km/h (5 Bft) 95,74 %
25.04.2019 10:44 15,6 C 16,1 C 16,1 C 70 % 1004,7 hPa 0,0 l/m 0 min 0 min 307 W/m 25,7 km/h (4 Bft) 95,65 %
25.04.2019 10:46 15,6 C 15,6 C 15,6 C 70 % 1004,6 hPa 0,0 l/m 0 min 0 min 236 W/m 16,1 km/h (3 Bft) 93,62 %
25.04.2019 10:48 15,5 C 15,6 C 15,0 C 70 % 1004,7 hPa 0,0 l/m 0 min 0 min 236 W/m 32,2 km/h (5 Bft) 95,74 %
25.04.2019 10:50 15,4 C 15,6 C 15,0 C 69 % 1004,6 hPa 0,0 l/m 0 min 0 min 266 W/m 22,5 km/h (4 Bft) 97,87 %
25.04.2019 10:52 15,4 C 15,6 C 15,0 C 70 % 1004,7 hPa 0,0 l/m 2 min 0 min 337 W/m 32,2 km/h (5 Bft) 95,74 %
25.04.2019 10:54 15,4 C 16,1 C 15,6 C 70 % 1004,6 hPa 0,0 l/m 2 min 0 min 394 W/m 19,3 km/h (3 Bft) 95,74 %
25.04.2019 10:56 15,4 C 16,7 C 16,1 C 70 % 1004,6 hPa 0,0 l/m 2 min 0 min 414 W/m 25,7 km/h (4 Bft) 95,65 %
25.04.2019 10:58 15,4 C 16,1 C 16,1 C 70 % 1004,6 hPa 0,0 l/m 2 min 0 min 410 W/m 29,0 km/h (5 Bft) 97,87 %
25.04.2019 11:00 15,4 C 16,1 C 15,6 C 70 % 1004,5 hPa 0,0 l/m 2 min 0 min 337 W/m 25,7 km/h (4 Bft) 97,87 %
25.04.2019 11:05 15,4 C 16,1 C 15,6 C 70 % 1004,5 hPa 0,0 l/m 5 min 0 min 330 W/m 25,7 km/h (4 Bft) 99,12 %
25.04.2019 11:12 15,3 C 15,6 C 15,0 C 70 % 1004,5 hPa 0,0 l/m 0 min 0 min 281 W/m 41,8 km/h (6 Bft) 98,15 %
25.04.2019 11:14 15,3 C 15,0 C 15,0 C 71 % 1004,6 hPa 0,0 l/m 0 min 0 min 245 W/m 22,5 km/h (4 Bft) 97,87 %
25.04.2019 11:16 15,2 C 15,0 C 15,0 C 71 % 1004,6 hPa 0,0 l/m 0 min 0 min 226 W/m 25,7 km/h (4 Bft) 91,49 %
25.04.2019 11:18 15,2 C 15,0 C 14,4 C 71 % 1004,5 hPa 0,0 l/m 0 min 0 min 207 W/m 25,7 km/h (4 Bft) 97,87 %
25.04.2019 11:20 15,2 C 15,0 C 14,4 C 71 % 1004,6 hPa 0,0 l/m 0 min 0 min 177 W/m 25,7 km/h (4 Bft) 95,65 %
25.04.2019 11:22 15,2 C 15,0 C 14,4 C 71 % 1004,5 hPa 0,0 l/m 0 min 0 min 189 W/m 16,1 km/h (3 Bft) 95,83 %
25.04.2019 11:24 15,2 C 15,0 C 14,4 C 71 % 1004,6 hPa 0,0 l/m 0 min 0 min 171 W/m 41,8 km/h (6 Bft) 93,62 %
25.04.2019 11:26 15,1 C 15,0 C 14,4 C 71 % 1004,6 hPa 0,0 l/m 0 min 0 min 183 W/m 29,0 km/h (5 Bft) 95,74 %
25.04.2019 11:28 15,1 C 15,0 C 14,4 C 71 % 1004,7 hPa 0,0 l/m 0 min 0 min 227 W/m 32,2 km/h (5 Bft) 95,74 %
25.04.2019 11:30 15,1 C 16,1 C 15,0 C 71 % 1004,6 hPa 0,0 l/m 2 min 0 min 361 W/m 29,0 km/h (5 Bft) 91,49 %
25.04.2019 11:32 15,1 C 17,2 C 16,7 C 72 % 1004,6 hPa 0,0 l/m 2 min 0 min 486 W/m 25,7 km/h (4 Bft) 95,65 %
25.04.2019 11:34 15,1 C 17,2 C 16,7 C 72 % 1004,5 hPa 0,0 l/m 2 min 0 min 480 W/m 29,0 km/h (5 Bft) 91,49 %
25.04.2019 11:36 15,2 C 18,9 C 18,3 C 72 % 1004,4 hPa 0,0 l/m 2 min 0 min 563 W/m 35,4 km/h (5 Bft) 95,74 %
25.04.2019 11:38 15,3 C 18,9 C 18,3 C 72 % 1004,4 hPa 0,0 l/m 2 min 0 min 549 W/m 22,5 km/h (4 Bft) 95,74 %
25.04.2019 11:40 15,4 C 17,8 C 17,2 C 71 % 1004,4 hPa 0,0 l/m 2 min 0 min 373 W/m 29,0 km/h (5 Bft) 95,74 %
25.04.2019 11:42 15,5 C 16,7 C 16,7 C 72 % 1004,4 hPa 0,0 l/m 0 min 0 min 280 W/m 22,5 km/h (4 Bft) 95,65 %
25.04.2019 11:44 15,6 C 16,7 C 16,1 C 71 % 1004,4 hPa 0,0 l/m 0 min 0 min 276 W/m 29,0 km/h (5 Bft) 95,74 %
25.04.2019 11:46 15,6 C 16,7 C 16,1 C 71 % 1004,4 hPa 0,0 l/m 0 min 0 min 303 W/m 25,7 km/h (4 Bft) 93,62 %
25.04.2019 11:48 15,6 C 16,7 C 16,1 C 71 % 1004,4 hPa 0,0 l/m 0 min 0 min 346 W/m 29,0 km/h (5 Bft) 95,74 %
25.04.2019 11:50 15,7 C 16,7 C 16,1 C 71 % 1004,4 hPa 0,0 l/m 0 min 0 min 331 W/m 22,5 km/h (4 Bft) 95,74 %
25.04.2019 11:52 15,7 C 16,7 C 16,1 C 71 % 1004,4 hPa 0,0 l/m 0 min 0 min 332 W/m 25,7 km/h (4 Bft) 95,74 %
25.04.2019 11:54 15,7 C 16,7 C 16,1 C 71 % 1004,4 hPa 0,0 l/m 0 min 0 min 350 W/m 35,4 km/h (5 Bft) 93,48 %
25.04.2019 11:56 15,7 C 18,9 C 17,8 C 71 % 1004,4 hPa 0,0 l/m 2 min 0 min 424 W/m 25,7 km/h (4 Bft) 95,74 %
25.04.2019 11:58 15,8 C 18,9 C 18,9 C 71 % 1004,4 hPa 0,0 l/m 2 min 0 min 604 W/m 25,7 km/h (4 Bft) 93,62 %
25.04.2019 12:00 15,9 C 18,3 C 18,3 C 71 % 1004,4 hPa 0,0 l/m 2 min 0 min 560 W/m 32,2 km/h (5 Bft) 95,74 %
25.04.2019 12:02 16,0 C 18,9 C 18,3 C 71 % 1004,4 hPa 0,0 l/m 2 min 0 min 488 W/m 32,2 km/h (5 Bft) 95,83 %
25.04.2019 12:04 16,1 C 18,3 C 18,3 C 70 % 1004,4 hPa 0,0 l/m 2 min 0 min 511 W/m 29,0 km/h (5 Bft) 97,87 %
25.04.2019 12:08 16,2 C 17,8 C 17,8 C 70 % 1004,4 hPa 0,0 l/m 4 min 0 min 437 W/m 35,4 km/h (5 Bft) 97,85 %
25.04.2019 12:10 16,3 C 17,2 C 17,2 C 69 % 1004,4 hPa 0,0 l/m 2 min 0 min 366 W/m 41,8 km/h (6 Bft) 100,00 %
25.04.2019 12:12 16,3 C 17,2 C 16,7 C 69 % 1004,3 hPa 0,0 l/m 0 min 0 min 350 W/m 38,6 km/h (5 Bft) 95,74 %
25.04.2019 12:14 16,3 C 17,2 C 17,2 C 68 % 1004,3 hPa 0,0 l/m 2 min 0 min 404 W/m 35,4 km/h (5 Bft) 100,00 %
25.04.2019 12:16 16,4 C 17,8 C 17,2 C 69 % 1004,4 hPa 0,0 l/m 2 min 0 min 431 W/m 22,5 km/h (4 Bft) 100,00 %
25.04.2019 12:18 16,4 C 17,2 C 17,2 C 68 % 1004,5 hPa 0,0 l/m 2 min 0 min 410 W/m 32,2 km/h (5 Bft) 100,00 %
25.04.2019 12:20 16,4 C 17,2 C 16,7 C 68 % 1004,5 hPa 0,0 l/m 0 min 0 min 356 W/m 41,8 km/h (6 Bft) 100,00 %
25.04.2019 12:22 16,4 C 16,7 C 16,7 C 68 % 1004,5 hPa 0,0 l/m 0 min 0 min 309 W/m 22,5 km/h (4 Bft) 100,00 %
25.04.2019 12:24 16,4 C 16,7 C 16,7 C 68 % 1004,5 hPa 0,0 l/m 0 min 0 min 274 W/m 29,0 km/h (5 Bft) 97,87 %
25.04.2019 12:26 16,4 C 16,1 C 16,1 C 68 % 1004,5 hPa 0,0 l/m 0 min 0 min 254 W/m 29,0 km/h (5 Bft) 95,74 %
25.04.2019 12:28 16,4 C 16,7 C 16,1 C 68 % 1004,5 hPa 0,0 l/m 0 min 0 min 253 W/m 25,7 km/h (4 Bft) 100,00 %
25.04.2019 12:30 16,4 C 16,7 C 16,7 C 68 % 1004,5 hPa 0,0 l/m 0 min 0 min 275 W/m 22,5 km/h (4 Bft) 100,00 %
25.04.2019 12:32 16,4 C 16,7 C 16,7 C 68 % 1004,5 hPa 0,0 l/m 0 min 0 min 294 W/m 29,0 km/h (5 Bft) 100,00 %
25.04.2019 12:34 16,4 C 17,2 C 16,7 C 68 % 1004,5 hPa 0,0 l/m 0 min 0 min 341 W/m 29,0 km/h (5 Bft) 97,87 %
25.04.2019 12:36 16,4 C 17,2 C 16,7 C 68 % 1004,4 hPa 0,0 l/m 0 min 0 min 368 W/m 22,5 km/h (4 Bft) 100,00 %
25.04.2019 12:38 16,4 C 17,8 C 17,2 C 68 % 1004,3 hPa 0,0 l/m 2 min 0 min 437 W/m 32,2 km/h (5 Bft) 100,00 %
25.04.2019 12:40 16,5 C 17,8 C 17,8 C 68 % 1004,3 hPa 0,0 l/m 2 min 0 min 460 W/m 29,0 km/h (5 Bft) 100,00 %
25.04.2019 12:42 16,5 C 17,8 C 17,8 C 68 % 1004,3 hPa 0,0 l/m 2 min 0 min 418 W/m 25,7 km/h (4 Bft) 97,87 %
25.04.2019 12:44 16,6 C 17,8 C 17,8 C 68 % 1004,3 hPa 0,0 l/m 2 min 0 min 458 W/m 29,0 km/h (5 Bft) 100,00 %
25.04.2019 12:46 16,6 C 18,3 C 17,8 C 68 % 1004,2 hPa 0,0 l/m 2 min 0 min 435 W/m 29,0 km/h (5 Bft) 100,00 %
25.04.2019 12:48 16,7 C 17,8 C 17,8 C 68 % 1004,3 hPa 0,0 l/m 0 min 0 min 370 W/m 38,6 km/h (5 Bft) 97,87 %
25.04.2019 12:50 16,7 C 17,8 C 17,2 C 67 % 1004,3 hPa 0,0 l/m 0 min 0 min 373 W/m 32,2 km/h (5 Bft) 97,87 %
25.04.2019 12:52 16,7 C 17,8 C 17,2 C 67 % 1004,4 hPa 0,0 l/m 0 min 0 min 354 W/m 32,2 km/h (5 Bft) 97,83 %
25.04.2019 12:54 16,8 C 17,8 C 17,2 C 67 % 1004,3 hPa 0,0 l/m 0 min 0 min 361 W/m 45,1 km/h (6 Bft) 97,87 %
25.04.2019 12:56 16,8 C 17,8 C 17,2 C 68 % 1004,3 hPa 0,0 l/m 0 min 0 min 377 W/m 35,4 km/h (5 Bft) 95,74 %
25.04.2019 12:58 16,9 C 18,3 C 17,8 C 67 % 1004,4 hPa 0,0 l/m 2 min 0 min 410 W/m 25,7 km/h (4 Bft) 97,87 %
25.04.2019 13:00 16,9 C 18,3 C 17,8 C 67 % 1004,3 hPa 0,0 l/m 2 min 0 min 413 W/m 29,0 km/h (5 Bft) 97,87 %
25.04.2019 13:02 17,0 C 18,3 C 17,8 C 67 % 1004,2 hPa 0,0 l/m 2 min 0 min 429 W/m 45,1 km/h (6 Bft) 97,87 %
25.04.2019 13:04 17,1 C 18,9 C 18,3 C 67 % 1004,2 hPa 0,0 l/m 2 min 0 min 452 W/m 25,7 km/h (4 Bft) 97,83 %
25.04.2019 13:06 17,1 C 18,3 C 17,8 C 66 % 1004,3 hPa 0,0 l/m 2 min 0 min 419 W/m 38,6 km/h (5 Bft) 96,61 %
25.04.2019 13:08 17,2 C 18,9 C 18,9 C 67 % 1004,3 hPa 0,0 l/m 2 min 0 min 420 W/m 25,7 km/h (4 Bft) 97,14 %
25.04.2019 13:10 17,3 C 18,9 C 18,9 C 68 % 1004,3 hPa 0,0 l/m 2 min 0 min 436 W/m 29,0 km/h (5 Bft) 97,87 %
25.04.2019 13:12 17,4 C 19,4 C 18,9 C 67 % 1004,3 hPa 0,0 l/m 2 min 0 min 406 W/m 29,0 km/h (5 Bft) 93,62 %
25.04.2019 13:14 17,4 C 19,4 C 18,9 C 67 % 1004,4 hPa 0,0 l/m 2 min 0 min 397 W/m 29,0 km/h (5 Bft) 97,87 %
25.04.2019 13:16 17,5 C 18,9 C 18,9 C 67 % 1004,4 hPa 0,0 l/m 2 min 0 min 411 W/m 25,7 km/h (4 Bft) 95,65 %
25.04.2019 13:18 17,6 C 19,4 C 18,9 C 67 % 1004,4 hPa 0,0 l/m 2 min 0 min 446 W/m 22,5 km/h (4 Bft) 95,74 %
25.04.2019 13:20 17,6 C 20,0 C 19,4 C 66 % 1004,3 hPa 0,0 l/m 2 min 0 min 470 W/m 32,2 km/h (5 Bft) 97,87 %
25.04.2019 13:22 17,7 C 21,1 C 20,6 C 66 % 1004,3 hPa 0,0 l/m 2 min 0 min 602 W/m 29,0 km/h (5 Bft) 95,74 %
25.04.2019 13:24 17,8 C 21,1 C 21,1 C 66 % 1004,4 hPa 0,0 l/m 2 min 0 min 659 W/m 29,0 km/h (5 Bft) 97,87 %
25.04.2019 13:26 17,9 C 20,0 C 20,6 C 66 % 1004,3 hPa 0,0 l/m 2 min 0 min 750 W/m 48,3 km/h (6 Bft) 97,87 %
25.04.2019 13:28 18,0 C 20,6 C 20,6 C 66 % 1004,4 hPa 0,0 l/m 2 min 0 min 563 W/m 29,0 km/h (5 Bft) 97,83 %
25.04.2019 13:30 18,1 C 19,4 C 20,0 C 65 % 1004,4 hPa 0,0 l/m 2 min 0 min 492 W/m 29,0 km/h (5 Bft) 100,00 %
25.04.2019 13:32 18,1 C 19,4 C 19,4 C 64 % 1004,6 hPa 0,0 l/m 2 min 0 min 506 W/m 29,0 km/h (5 Bft) 100,00 %
25.04.2019 13:34 18,2 C 19,4 C 19,4 C 64 % 1004,4 hPa 0,0 l/m 2 min 0 min 458 W/m 32,2 km/h (5 Bft) 97,87 %
25.04.2019 13:36 18,2 C 21,1 C 21,1 C 65 % 1004,1 hPa 0,0 l/m 2 min 0 min 647 W/m 19,3 km/h (3 Bft) 100,00 %
25.04.2019 13:38 18,3 C 21,1 C 21,1 C 65 % 1004,2 hPa 0,0 l/m 2 min 0 min 712 W/m 22,5 km/h (4 Bft) 97,83 %
25.04.2019 13:40 18,3 C 21,7 C 22,2 C 65 % 1004,2 hPa 0,0 l/m 2 min 0 min 481 W/m 16,1 km/h (3 Bft) 100,00 %
25.04.2019 13:42 18,4 C 22,2 C 22,8 C 65 % 1004,2 hPa 0,0 l/m 2 min 0 min 696 W/m 38,6 km/h (5 Bft) 100,00 %
25.04.2019 13:44 18,5 C 21,7 C 22,8 C 64 % 1004,2 hPa 0,0 l/m 2 min 0 min 809 W/m 41,8 km/h (6 Bft) 97,87 %
25.04.2019 13:46 18,6 C 21,7 C 22,8 C 63 % 1004,1 hPa 0,0 l/m 2 min 0 min 840 W/m 35,4 km/h (5 Bft) 100,00 %
25.04.2019 13:48 18,7 C 22,2 C 23,9 C 64 % 1004,0 hPa 0,0 l/m 2 min 0 min 878 W/m 29,0 km/h (5 Bft) 100,00 %
25.04.2019 13:50 18,7 C 22,2 C 25,0 C 63 % 1004,1 hPa 0,0 l/m 2 min 0 min 875 W/m 25,7 km/h (4 Bft) 100,00 %
25.04.2019 13:52 18,8 C 22,8 C 25,6 C 62 % 1004,0 hPa 0,0 l/m 2 min 0 min 877 W/m 22,5 km/h (4 Bft) 100,00 %
25.04.2019 13:54 18,9 C 23,3 C 26,1 C 63 % 1004,0 hPa 0,0 l/m 2 min 0 min 875 W/m 22,5 km/h (4 Bft) 100,00 %
25.04.2019 13:56 19,1 C 23,3 C 26,1 C 63 % 1004,0 hPa 0,0 l/m 2 min 0 min 871 W/m 29,0 km/h (5 Bft) 100,00 %
25.04.2019 13:58 19,2 C 23,3 C 26,1 C 63 % 1003,8 hPa 0,0 l/m 2 min 0 min 871 W/m 38,6 km/h (5 Bft) 97,87 %
25.04.2019 14:00 19,3 C 22,8 C 26,1 C 62 % 1003,7 hPa 0,0 l/m 2 min 0 min 870 W/m 25,7 km/h (4 Bft) 97,87 %
25.04.2019 14:02 19,4 C 22,8 C 26,1 C 62 % 1003,8 hPa 0,0 l/m 2 min 0 min 868 W/m 29,0 km/h (5 Bft) 100,00 %
25.04.2019 14:04 19,4 C 23,3 C 26,1 C 62 % 1003,8 hPa 0,0 l/m 2 min 0 min 867 W/m 22,5 km/h (4 Bft) 97,87 %
25.04.2019 14:06 19,6 C 23,9 C 27,2 C 62 % 1003,5 hPa 0,0 l/m 2 min 0 min 865 W/m 16,1 km/h (3 Bft) 97,87 %
25.04.2019 14:08 19,7 C 23,3 C 26,7 C 60 % 1003,6 hPa 0,0 l/m 2 min 0 min 864 W/m 29,0 km/h (5 Bft) 100,00 %
25.04.2019 14:10 19,8 C 23,3 C 27,2 C 60 % 1003,6 hPa 0,0 l/m 2 min 0 min 863 W/m 25,7 km/h (4 Bft) 100,00 %
25.04.2019 14:12 19,9 C 23,9 C 27,2 C 60 % 1003,6 hPa 0,0 l/m 2 min 0 min 861 W/m 29,0 km/h (5 Bft) 100,00 %
25.04.2019 14:14 20,0 C 23,3 C 26,7 C 60 % 1003,5 hPa 0,0 l/m 2 min 0 min 862 W/m 45,1 km/h (6 Bft) 100,00 %
25.04.2019 14:16 20,1 C 23,3 C 26,1 C 60 % 1003,6 hPa 0,0 l/m 2 min 0 min 864 W/m 29,0 km/h (5 Bft) 100,00 %
25.04.2019 14:18 20,1 C 23,9 C 27,2 C 59 % 1003,6 hPa 0,0 l/m 2 min 0 min 874 W/m 25,7 km/h (4 Bft) 97,87 %
25.04.2019 14:20 20,2 C 23,3 C 26,1 C 60 % 1003,6 hPa 0,0 l/m 2 min 0 min 893 W/m 35,4 km/h (5 Bft) 95,74 %
25.04.2019 14:22 20,2 C 23,9 C 26,7 C 58 % 1003,6 hPa 0,0 l/m 2 min 0 min 920 W/m 45,1 km/h (6 Bft) 97,87 %
25.04.2019 14:24 20,3 C 23,9 C 26,7 C 56 % 1003,6 hPa 0,0 l/m 2 min 0 min 932 W/m 35,4 km/h (5 Bft) 97,87 %
25.04.2019 14:26 20,4 C 23,3 C 26,7 C 56 % 1003,7 hPa 0,0 l/m 2 min 0 min 917 W/m 48,3 km/h (6 Bft) 93,48 %
25.04.2019 14:28 20,4 C 23,3 C 26,7 C 56 % 1003,7 hPa 0,0 l/m 2 min 0 min 926 W/m 32,2 km/h (5 Bft) 95,74 %
25.04.2019 14:30 20,5 C 23,3 C 25,6 C 55 % 1003,7 hPa 0,0 l/m 2 min 0 min 959 W/m 32,2 km/h (5 Bft) 95,74 %
25.04.2019 14:32 20,6 C 24,4 C 26,7 C 56 % 1003,7 hPa 0,0 l/m 2 min 0 min 971 W/m 19,3 km/h (3 Bft) 97,87 %
25.04.2019 14:34 20,6 C 23,3 C 24,4 C 56 % 1003,6 hPa 0,0 l/m 2 min 0 min 1012 W/m 25,7 km/h (4 Bft) 95,74 %
25.04.2019 14:36 20,7 C 22,8 C 22,8 C 56 % 1003,6 hPa 0,0 l/m 2 min 0 min 998 W/m 25,7 km/h (4 Bft) 95,74 %
25.04.2019 14:38 20,7 C 23,9 C 23,9 C 56 % 1003,5 hPa 0,0 l/m 2 min 0 min 1030 W/m 29,0 km/h (5 Bft) 95,65 %
25.04.2019 14:40 20,7 C 22,2 C 22,2 C 55 % 1003,5 hPa 0,0 l/m 2 min 0 min 855 W/m 22,5 km/h (4 Bft) 95,74 %
25.04.2019 14:42 20,8 C 23,9 C 23,9 C 56 % 1003,5 hPa 0,0 l/m 0 min 0 min 330 W/m 12,9 km/h (3 Bft) 95,74 %
25.04.2019 14:44 20,9 C 24,4 C 24,4 C 56 % 1003,4 hPa 0,0 l/m 2 min 0 min 962 W/m 16,1 km/h (3 Bft) 95,74 %
25.04.2019 14:46 20,9 C 25,6 C 23,9 C 55 % 1003,5 hPa 0,0 l/m 2 min 0 min 970 W/m 22,5 km/h (4 Bft) 95,74 %
25.04.2019 14:48 21,1 C 26,1 C 23,9 C 55 % 1003,4 hPa 0,0 l/m 2 min 0 min 903 W/m 19,3 km/h (3 Bft) 95,74 %
25.04.2019 14:50 21,2 C 25,0 C 23,3 C 55 % 1003,3 hPa 0,0 l/m 2 min 0 min 891 W/m 25,7 km/h (4 Bft) 95,65 %
25.04.2019 14:52 21,3 C 25,0 C 22,8 C 54 % 1003,3 hPa 0,0 l/m 2 min 0 min 876 W/m 22,5 km/h (4 Bft) 95,74 %
25.04.2019 14:54 21,5 C 25,6 C 22,8 C 54 % 1003,3 hPa 0,0 l/m 2 min 0 min 852 W/m 16,1 km/h (3 Bft) 95,74 %
25.04.2019 14:56 21,6 C 25,0 C 22,2 C 53 % 1003,3 hPa 0,0 l/m 2 min 0 min 844 W/m 32,2 km/h (5 Bft) 95,74 %
25.04.2019 14:58 21,7 C 25,0 C 21,7 C 52 % 1003,3 hPa 0,0 l/m 2 min 0 min 837 W/m 29,0 km/h (5 Bft) 95,74 %
25.04.2019 15:00 21,8 C 25,0 C 22,2 C 52 % 1003,3 hPa 0,0 l/m 2 min 0 min 830 W/m 19,3 km/h (3 Bft) 95,74 %
25.04.2019 15:02 21,8 C 24,4 C 21,7 C 50 % 1003,2 hPa 0,0 l/m 2 min 0 min 827 W/m 32,2 km/h (5 Bft) 93,62 %
25.04.2019 15:04 21,9 C 24,4 C 21,7 C 48 % 1003,3 hPa 0,0 l/m 2 min 0 min 831 W/m 32,2 km/h (5 Bft) 95,74 %
25.04.2019 15:06 21,9 C 24,4 C 21,7 C 48 % 1003,3 hPa 0,0 l/m 2 min 0 min 849 W/m 25,7 km/h (4 Bft) 97,87 %
25.04.2019 15:08 22,0 C 24,4 C 21,7 C 48 % 1003,4 hPa 0,0 l/m 2 min 0 min 850 W/m 29,0 km/h (5 Bft) 96,00 %
25.04.2019 15:10 22,1 C 24,4 C 21,7 C 47 % 1003,3 hPa 0,0 l/m 2 min 0 min 830 W/m 38,6 km/h (5 Bft) 95,65 %
25.04.2019 15:12 22,1 C 24,4 C 21,7 C 47 % 1003,3 hPa 0,0 l/m 2 min 0 min 856 W/m 32,2 km/h (5 Bft) 93,62 %
25.04.2019 15:14 22,1 C 24,4 C 21,7 C 47 % 1003,2 hPa 0,0 l/m 2 min 0 min 846 W/m 35,4 km/h (5 Bft) 95,74 %
25.04.2019 15:16 22,2 C 25,0 C 22,2 C 48 % 1003,3 hPa 0,0 l/m 2 min 0 min 847 W/m 25,7 km/h (4 Bft) 95,74 %
25.04.2019 15:18 22,2 C 25,6 C 22,2 C 48 % 1003,2 hPa 0,0 l/m 2 min 0 min 877 W/m 22,5 km/h (4 Bft) 95,74 %
25.04.2019 15:20 22,3 C 25,6 C 22,8 C 48 % 1003,3 hPa 0,0 l/m 2 min 0 min 903 W/m 32,2 km/h (5 Bft) 93,62 %
25.04.2019 15:22 22,4 C 25,0 C 22,8 C 46 % 1003,2 hPa 0,0 l/m 2 min 0 min 884 W/m 25,7 km/h (4 Bft) 93,48 %
25.04.2019 15:24 22,4 C 23,9 C 22,2 C 46 % 1003,3 hPa 0,0 l/m 2 min 0 min 631 W/m 38,6 km/h (5 Bft) 95,74 %
25.04.2019 15:26 22,4 C 22,8 C 21,7 C 46 % 1003,3 hPa 0,0 l/m 2 min 0 min 385 W/m 32,2 km/h (5 Bft) 95,74 %
25.04.2019 15:28 22,4 C 22,8 C 22,2 C 46 % 1003,3 hPa 0,0 l/m 2 min 0 min 357 W/m 25,7 km/h (4 Bft) 95,74 %
25.04.2019 15:30 22,3 C 22,2 C 22,2 C 47 % 1003,2 hPa 0,0 l/m 0 min 0 min 308 W/m 16,1 km/h (3 Bft) 95,74 %
25.04.2019 15:32 22,3 C 22,2 C 21,7 C 47 % 1003,4 hPa 0,0 l/m 0 min 0 min 337 W/m 32,2 km/h (5 Bft) 95,65 %
25.04.2019 15:34 22,2 C 22,2 C 22,2 C 47 % 1003,4 hPa 0,0 l/m 2 min 0 min 404 W/m 22,5 km/h (4 Bft) 97,87 %
25.04.2019 15:36 22,2 C 22,2 C 21,7 C 47 % 1003,3 hPa 0,0 l/m 2 min 0 min 394 W/m 22,5 km/h (4 Bft) 95,74 %
25.04.2019 15:38 22,2 C 22,2 C 22,2 C 47 % 1003,4 hPa 0,0 l/m 2 min 0 min 460 W/m 25,7 km/h (4 Bft) 97,87 %
25.04.2019 15:40 22,1 C 22,2 C 21,7 C 47 % 1003,4 hPa 0,0 l/m 2 min 0 min 349 W/m 25,7 km/h (4 Bft) 97,87 %
25.04.2019 15:42 22,1 C 21,7 C 21,7 C 47 % 1003,3 hPa 0,0 l/m 0 min 0 min 281 W/m 19,3 km/h (3 Bft) 100,00 %
25.04.2019 15:44 22,1 C 21,7 C 21,1 C 47 % 1003,3 hPa 0,0 l/m 0 min 0 min 298 W/m 29,0 km/h (5 Bft) 97,83 %
25.04.2019 15:46 22,0 C 21,7 C 21,7 C 48 % 1003,4 hPa 0,0 l/m 0 min 0 min 262 W/m 22,5 km/h (4 Bft) 97,87 %
25.04.2019 15:48 21,9 C 21,7 C 21,1 C 48 % 1003,4 hPa 0,0 l/m 0 min 0 min 217 W/m 25,7 km/h (4 Bft) 97,87 %
25.04.2019 15:50 21,9 C 21,1 C 21,1 C 48 % 1003,5 hPa 0,0 l/m 0 min 0 min 205 W/m 29,0 km/h (5 Bft) 97,87 %
25.04.2019 15:52 21,8 C 21,1 C 20,6 C 48 % 1003,5 hPa 0,0 l/m 0 min 0 min 189 W/m 25,7 km/h (4 Bft) 100,00 %
25.04.2019 15:54 21,7 C 21,1 C 20,6 C 48 % 1003,5 hPa 0,0 l/m 0 min 0 min 188 W/m 32,2 km/h (5 Bft) 100,00 %
25.04.2019 15:56 21,7 C 21,1 C 20,6 C 49 % 1003,5 hPa 0,0 l/m 0 min 0 min 203 W/m 35,4 km/h (5 Bft) 100,00 %
25.04.2019 15:58 21,6 C 21,1 C 20,6 C 48 % 1003,6 hPa 0,0 l/m 0 min 0 min 229 W/m 29,0 km/h (5 Bft) 100,00 %
25.04.2019 16:00 21,5 C 21,1 C 21,1 C 49 % 1003,6 hPa 0,0 l/m 0 min 0 min 238 W/m 29,0 km/h (5 Bft) 100,00 %
25.04.2019 16:02 21,4 C 21,1 C 20,6 C 50 % 1003,7 hPa 0,0 l/m 0 min 0 min 224 W/m 32,2 km/h (5 Bft) 100,00 %
25.04.2019 16:04 21,4 C 21,1 C 20,6 C 50 % 1003,7 hPa 0,0 l/m 0 min 0 min 186 W/m 16,1 km/h (3 Bft) 100,00 %
25.04.2019 16:06 21,3 C 20,6 C 20,6 C 50 % 1003,7 hPa 0,0 l/m 0 min 0 min 158 W/m 32,2 km/h (5 Bft) 100,00 %
25.04.2019 16:08 21,3 C 20,6 C 20,6 C 50 % 1003,8 hPa 0,0 l/m 0 min 0 min 145 W/m 32,2 km/h (5 Bft) 100,00 %
25.04.2019 16:10 21,3 C 20,6 C 20,0 C 51 % 1003,8 hPa 0,0 l/m 0 min 0 min 138 W/m 19,3 km/h (3 Bft) 100,00 %
25.04.2019 16:12 21,2 C 20,0 C 20,0 C 51 % 1003,8 hPa 0,0 l/m 0 min 0 min 132 W/m 25,7 km/h (4 Bft) 100,00 %
25.04.2019 16:14 21,1 C 20,0 C 20,0 C 53 % 1003,7 hPa 0,0 l/m 0 min 0 min 128 W/m 9,7 km/h (2 Bft) 95,74 %
25.04.2019 16:16 21,1 C 20,0 C 19,4 C 54 % 1003,7 hPa 0,0 l/m 0 min 0 min 128 W/m 6,4 km/h (2 Bft) 97,87 %
25.04.2019 16:18 21,0 C 20,0 C 19,4 C 54 % 1003,7 hPa 0,0 l/m 0 min 0 min 132 W/m 9,7 km/h (2 Bft) 100,00 %
25.04.2019 16:20 20,9 C 20,0 C 19,4 C 53 % 1003,7 hPa 0,0 l/m 0 min 0 min 133 W/m 9,7 km/h (2 Bft) 100,00 %
25.04.2019 16:22 20,9 C 20,0 C 19,4 C 53 % 1003,7 hPa 0,0 l/m 0 min 0 min 138 W/m 9,7 km/h (2 Bft) 100,00 %
25.04.2019 16:24 20,9 C 20,0 C 19,4 C 53 % 1003,7 hPa 0,0 l/m 0 min 0 min 152 W/m 9,7 km/h (2 Bft) 100,00 %
25.04.2019 16:26 20,8 C 19,4 C 19,4 C 53 % 1003,7 hPa 0,0 l/m 0 min 0 min 156 W/m 16,1 km/h (3 Bft) 100,00 %
25.04.2019 16:28 20,7 C 19,4 C 19,4 C 53 % 1003,7 hPa 0,0 l/m 0 min 0 min 148 W/m 12,9 km/h (3 Bft) 100,00 %
25.04.2019 16:30 20,7 C 19,4 C 19,4 C 54 % 1003,7 hPa 0,0 l/m 0 min 0 min 128 W/m 9,7 km/h (2 Bft) 100,00 %
25.04.2019 16:34 20,5 C 18,9 C 18,9 C 55 % 1003,6 hPa 0,0 l/m 0 min 0 min 84 W/m 9,7 km/h (2 Bft) 100,00 %
25.04.2019 16:36 20,4 C 18,9 C 18,9 C 54 % 1003,6 hPa 0,0 l/m 0 min 0 min 76 W/m 9,7 km/h (2 Bft) 100,00 %
25.04.2019 16:38 20,4 C 18,9 C 18,9 C 54 % 1003,7 hPa 0,0 l/m 0 min 0 min 74 W/m 3,2 km/h (1 Bft) 100,00 %
25.04.2019 16:40 20,3 C 18,9 C 18,9 C 55 % 1003,7 hPa 0,0 l/m 0 min 0 min 70 W/m 6,4 km/h (2 Bft) 100,00 %
25.04.2019 16:42 20,3 C 18,9 C 18,9 C 55 % 1003,7 hPa 0,0 l/m 0 min 0 min 67 W/m 9,7 km/h (2 Bft) 100,00 %
25.04.2019 16:44 20,2 C 18,9 C 18,3 C 55 % 1003,7 hPa 0,0 l/m 0 min 0 min 61 W/m 9,7 km/h (2 Bft) 100,00 %
25.04.2019 16:46 20,2 C 18,9 C 18,3 C 56 % 1003,7 hPa 0,0 l/m 0 min 0 min 50 W/m 6,4 km/h (2 Bft) 100,00 %
25.04.2019 16:48 20,2 C 18,3 C 18,3 C 57 % 1003,7 hPa 0,0 l/m 0 min 0 min 47 W/m 6,4 km/h (2 Bft) 100,00 %
25.04.2019 16:50 20,1 C 18,3 C 18,3 C 57 % 1003,7 hPa 0,0 l/m 0 min 0 min 46 W/m 6,4 km/h (2 Bft) 100,00 %
25.04.2019 16:52 20,0 C 18,3 C 18,3 C 58 % 1003,8 hPa 0,0 l/m 0 min 0 min 48 W/m 6,4 km/h (2 Bft) 100,00 %
25.04.2019 16:54 19,9 C 18,3 C 17,8 C 57 % 1003,8 hPa 0,0 l/m 0 min 0 min 53 W/m 3,2 km/h (1 Bft) 100,00 %
25.04.2019 16:56 19,9 C 18,3 C 17,8 C 57 % 1003,8 hPa 0,0 l/m 0 min 0 min 53 W/m 3,2 km/h (1 Bft) 100,00 %
25.04.2019 16:58 19,9 C 18,3 C 17,8 C 57 % 1003,8 hPa 0,0 l/m 0 min 0 min 53 W/m 3,2 km/h (1 Bft) 100,00 %
25.04.2019 17:00 19,8 C 18,3 C 17,8 C 58 % 1003,8 hPa 0,0 l/m 0 min 0 min 58 W/m 3,2 km/h (1 Bft) 100,00 %
25.04.2019 17:02 19,8 C 18,3 C 17,8 C 59 % 1003,8 hPa 0,0 l/m 0 min 0 min 63 W/m 3,2 km/h (1 Bft) 100,00 %
25.04.2019 17:04 19,7 C 18,3 C 17,8 C 60 % 1003,8 hPa 0,0 l/m 0 min 0 min 72 W/m 3,2 km/h (1 Bft) 100,00 %
25.04.2019 17:06 19,7 C 18,3 C 17,8 C 60 % 1003,8 hPa 0,0 l/m 0 min 0 min 82 W/m 3,2 km/h (1 Bft) 100,00 %
25.04.2019 17:08 19,6 C 18,3 C 17,8 C 60 % 1003,8 hPa 0,0 l/m 0 min 0 min 76 W/m 3,2 km/h (1 Bft) 100,00 %
25.04.2019 17:10 19,6 C 18,3 C 17,8 C 60 % 1003,9 hPa 0,0 l/m 0 min 0 min 66 W/m 3,2 km/h (1 Bft) 100,00 %
25.04.2019 17:12 19,5 C 18,3 C 17,8 C 61 % 1003,9 hPa 0,0 l/m 0 min 0 min 58 W/m 3,2 km/h (1 Bft) 97,96 %
25.04.2019 17:14 19,4 C 18,3 C 17,8 C 61 % 1003,9 hPa 0,0 l/m 0 min 0 min 53 W/m 3,2 km/h (1 Bft) 97,87 %
25.04.2019 17:16 19,4 C 18,3 C 17,8 C 61 % 1004,0 hPa 0,0 l/m 0 min 0 min 53 W/m 3,2 km/h (1 Bft) 100,00 %
25.04.2019 17:18 19,4 C 18,3 C 17,8 C 61 % 1004,0 hPa 0,0 l/m 0 min 2 min 54 W/m 3,2 km/h (1 Bft) 100,00 %
25.04.2019 17:20 19,3 C 17,8 C 16,7 C 63 % 1004,0 hPa 0,0 l/m 0 min 2 min 62 W/m 3,2 km/h (1 Bft) 100,00 %
25.04.2019 17:22 19,3 C 17,2 C 16,7 C 64 % 1004,1 hPa 0,0 l/m 0 min 2 min 64 W/m 6,4 km/h (2 Bft) 100,00 %
25.04.2019 17:24 19,3 C 16,7 C 15,6 C 64 % 1004,0 hPa 0,0 l/m 0 min 2 min 63 W/m 6,4 km/h (2 Bft) 100,00 %
25.04.2019 17:26 19,2 C 16,7 C 15,6 C 65 % 1004,0 hPa 0,0 l/m 0 min 2 min 60 W/m 6,4 km/h (2 Bft) 100,00 %
25.04.2019 17:28 19,1 C 16,7 C 15,6 C 64 % 1004,0 hPa 0,0 l/m 0 min 2 min 58 W/m 6,4 km/h (2 Bft) 100,00 %
25.04.2019 17:30 19,1 C 16,7 C 15,6 C 64 % 1004,1 hPa 0,0 l/m 0 min 0 min 57 W/m 6,4 km/h (2 Bft) 97,87 %
25.04.2019 17:32 18,9 C 16,7 C 16,1 C 64 % 1004,1 hPa 0,0 l/m 0 min 0 min 64 W/m 9,7 km/h (2 Bft) 95,65 %
25.04.2019 17:34 18,8 C 16,7 C 16,1 C 65 % 1004,1 hPa 0,0 l/m 0 min 0 min 52 W/m 6,4 km/h (2 Bft) 95,74 %
25.04.2019 17:36 18,7 C 16,7 C 16,1 C 65 % 1004,1 hPa 0,0 l/m 0 min 2 min 56 W/m 6,4 km/h (2 Bft) 97,87 %
25.04.2019 17:38 18,7 C 15,6 C 15,6 C 65 % 1004,1 hPa 0,0 l/m 0 min 2 min 52 W/m 9,7 km/h (2 Bft) 97,87 %
25.04.2019 17:40 18,6 C 15,6 C 15,6 C 66 % 1004,0 hPa 0,0 l/m 0 min 0 min 53 W/m 6,4 km/h (2 Bft) 95,74 %
25.04.2019 17:42 18,5 C 16,1 C 16,1 C 68 % 1004,0 hPa 0,0 l/m 0 min 0 min 52 W/m 6,4 km/h (2 Bft) 93,62 %
25.04.2019 17:44 18,3 C 16,1 C 16,1 C 68 % 1003,8 hPa 0,0 l/m 0 min 0 min 55 W/m 6,4 km/h (2 Bft) 93,48 %
25.04.2019 17:46 18,3 C 16,1 C 16,1 C 68 % 1003,8 hPa 0,0 l/m 0 min 0 min 52 W/m 6,4 km/h (2 Bft) 95,74 %
25.04.2019 17:48 18,2 C 16,7 C 16,1 C 67 % 1003,8 hPa 0,0 l/m 0 min 0 min 51 W/m 6,4 km/h (2 Bft) 94,55 %
25.04.2019 17:50 18,1 C 16,7 C 16,7 C 67 % 1003,9 hPa 0,0 l/m 0 min 0 min 46 W/m 9,7 km/h (2 Bft) 91,49 %
25.04.2019 17:52 18,1 C 16,7 C 16,7 C 66 % 1003,8 hPa 0,0 l/m 0 min 0 min 42 W/m 9,7 km/h (2 Bft) 93,62 %
25.04.2019 17:54 18,0 C 16,7 C 16,7 C 66 % 1003,8 hPa 0,0 l/m 0 min 0 min 45 W/m 6,4 km/h (2 Bft) 93,62 %
25.04.2019 17:56 17,9 C 17,2 C 16,7 C 66 % 1003,9 hPa 0,0 l/m 0 min 0 min 43 W/m 6,4 km/h (2 Bft) 92,68 %
25.04.2019 17:58 17,9 C 17,2 C 16,7 C 65 % 1003,8 hPa 0,0 l/m 0 min 0 min 48 W/m 3,2 km/h (1 Bft) 90,91 %
25.04.2019 18:00 17,9 C 17,2 C 16,7 C 66 % 1003,9 hPa 0,0 l/m 0 min 0 min 48 W/m 6,4 km/h (2 Bft) 93,62 %
25.04.2019 18:02 17,9 C 17,2 C 16,7 C 66 % 1003,9 hPa 0,0 l/m 0 min 0 min 47 W/m 6,4 km/h (2 Bft) 92,11 %
25.04.2019 18:04 17,8 C 17,2 C 16,7 C 66 % 1004,0 hPa 0,0 l/m 0 min 0 min 49 W/m 3,2 km/h (1 Bft) 95,83 %
25.04.2019 18:08 17,8 C 17,2 C 16,7 C 67 % 1004,0 hPa 0,0 l/m 0 min 0 min 53 W/m 6,4 km/h (2 Bft) 93,55 %
25.04.2019 18:10 17,8 C 17,2 C 16,7 C 66 % 1004,0 hPa 0,0 l/m 0 min 0 min 59 W/m 6,4 km/h (2 Bft) 93,62 %
25.04.2019 18:12 17,8 C 17,2 C 16,7 C 67 % 1003,9 hPa 0,0 l/m 0 min 0 min 69 W/m 6,4 km/h (2 Bft) 91,49 %
25.04.2019 18:14 17,8 C 17,2 C 16,7 C 67 % 1003,9 hPa 0,0 l/m 0 min 0 min 78 W/m 6,4 km/h (2 Bft) 93,62 %
25.04.2019 18:16 17,8 C 17,2 C 16,7 C 67 % 1003,9 hPa 0,0 l/m 0 min 0 min 70 W/m 16,1 km/h (3 Bft) 89,36 %
25.04.2019 18:18 17,7 C 17,2 C 16,7 C 66 % 1003,8 hPa 0,0 l/m 0 min 0 min 66 W/m 6,4 km/h (2 Bft) 93,48 %
25.04.2019 18:20 17,7 C 17,2 C 16,7 C 66 % 1003,8 hPa 0,0 l/m 0 min 0 min 74 W/m 6,4 km/h (2 Bft) 93,62 %
25.04.2019 18:22 17,7 C 17,2 C 16,7 C 66 % 1003,8 hPa 0,0 l/m 0 min 0 min 83 W/m 6,4 km/h (2 Bft) 93,62 %
25.04.2019 18:24 17,7 C 17,2 C 16,7 C 67 % 1003,9 hPa 0,0 l/m 0 min 0 min 86 W/m 6,4 km/h (2 Bft) 91,49 %
25.04.2019 18:26 17,7 C 17,2 C 16,7 C 67 % 1003,9 hPa 0,0 l/m 0 min 0 min 85 W/m 3,2 km/h (1 Bft) 93,62 %
25.04.2019 18:28 17,7 C 17,2 C 16,7 C 68 % 1004,0 hPa 0,0 l/m 0 min 0 min 81 W/m 12,9 km/h (3 Bft) 93,62 %
25.04.2019 18:30 17,7 C 17,2 C 16,7 C 67 % 1004,1 hPa 0,0 l/m 0 min 0 min 73 W/m 12,9 km/h (3 Bft) 91,30 %
25.04.2019 18:32 17,7 C 17,2 C 16,7 C 67 % 1004,1 hPa 0,0 l/m 0 min 0 min 63 W/m 9,7 km/h (2 Bft) 95,74 %
25.04.2019 18:34 17,7 C 17,2 C 16,7 C 66 % 1004,1 hPa 0,0 l/m 0 min 0 min 54 W/m 9,7 km/h (2 Bft) 97,87 %
25.04.2019 18:36 17,7 C 17,2 C 16,7 C 66 % 1004,1 hPa 0,0 l/m 0 min 0 min 44 W/m 6,4 km/h (2 Bft) 98,18 %
25.04.2019 18:38 17,7 C 17,2 C 16,7 C 67 % 1004,2 hPa 0,0 l/m 0 min 0 min 45 W/m 6,4 km/h (2 Bft) 100,00 %
25.04.2019 18:40 17,7 C 17,2 C 16,7 C 66 % 1004,2 hPa 0,0 l/m 0 min 0 min 46 W/m 6,4 km/h (2 Bft) 100,00 %
25.04.2019 18:42 17,7 C 17,2 C 16,7 C 66 % 1004,2 hPa 0,0 l/m 0 min 0 min 46 W/m 6,4 km/h (2 Bft) 100,00 %
25.04.2019 18:44 17,7 C 17,2 C 16,7 C 65 % 1004,3 hPa 0,0 l/m 0 min 0 min 45 W/m 12,9 km/h (3 Bft) 100,00 %
25.04.2019 18:46 17,7 C 17,2 C 16,7 C 63 % 1004,4 hPa 0,0 l/m 0 min 0 min 44 W/m 9,7 km/h (2 Bft) 100,00 %
25.04.2019 18:48 17,7 C 17,2 C 16,7 C 63 % 1004,4 hPa 0,0 l/m 0 min 0 min 44 W/m 12,9 km/h (3 Bft) 100,00 %
25.04.2019 18:50 17,7 C 17,2 C 16,7 C 62 % 1004,4 hPa 0,0 l/m 0 min 0 min 42 W/m 16,1 km/h (3 Bft) 100,00 %
25.04.2019 18:52 17,7 C 17,2 C 16,7 C 62 % 1004,4 hPa 0,0 l/m 0 min 0 min 40 W/m 12,9 km/h (3 Bft) 100,00 %
25.04.2019 18:54 17,7 C 17,2 C 16,7 C 60 % 1004,6 hPa 0,0 l/m 0 min 0 min 41 W/m 25,7 km/h (4 Bft) 100,00 %
25.04.2019 18:56 17,7 C 17,2 C 16,7 C 60 % 1004,6 hPa 0,0 l/m 0 min 0 min 44 W/m 25,7 km/h (4 Bft) 100,00 %
25.04.2019 18:58 17,7 C 17,2 C 16,7 C 60 % 1004,7 hPa 0,0 l/m 0 min 0 min 45 W/m 32,2 km/h (5 Bft) 100,00 %
25.04.2019 19:00 17,7 C 16,7 C 16,7 C 60 % 1004,7 hPa 0,0 l/m 0 min 0 min 46 W/m 29,0 km/h (5 Bft) 100,00 %
25.04.2019 19:02 17,7 C 16,7 C 16,7 C 60 % 1004,6 hPa 0,0 l/m 0 min 0 min 46 W/m 22,5 km/h (4 Bft) 100,00 %
25.04.2019 19:04 17,6 C 16,7 C 16,7 C 60 % 1004,7 hPa 0,0 l/m 0 min 0 min 45 W/m 16,1 km/h (3 Bft) 100,00 %
25.04.2019 19:06 17,6 C 16,7 C 16,7 C 60 % 1004,7 hPa 0,0 l/m 0 min 0 min 45 W/m 19,3 km/h (3 Bft) 100,00 %
25.04.2019 19:08 17,6 C 16,7 C 16,7 C 60 % 1004,7 hPa 0,0 l/m 0 min 0 min 41 W/m 38,6 km/h (5 Bft) 100,00 %
25.04.2019 19:10 17,6 C 16,7 C 16,7 C 61 % 1004,6 hPa 0,0 l/m 0 min 0 min 40 W/m 22,5 km/h (4 Bft) 100,00 %
25.04.2019 19:12 17,5 C 16,7 C 16,1 C 61 % 1004,6 hPa 0,0 l/m 0 min 0 min 36 W/m 22,5 km/h (4 Bft) 100,00 %
25.04.2019 19:14 17,5 C 16,7 C 16,1 C 61 % 1004,5 hPa 0,0 l/m 0 min 0 min 31 W/m 41,8 km/h (6 Bft) 100,00 %
25.04.2019 19:16 17,4 C 16,7 C 16,1 C 61 % 1004,6 hPa 0,0 l/m 0 min 0 min 24 W/m 32,2 km/h (5 Bft) 97,87 %
25.04.2019 19:18 17,4 C 16,1 C 16,1 C 61 % 1004,6 hPa 0,0 l/m 0 min 0 min 19 W/m 19,3 km/h (3 Bft) 100,00 %
25.04.2019 19:20 17,3 C 16,1 C 16,1 C 61 % 1004,7 hPa 0,0 l/m 0 min 0 min 16 W/m 19,3 km/h (3 Bft) 100,00 %
25.04.2019 19:22 17,3 C 16,1 C 16,1 C 61 % 1004,6 hPa 0,0 l/m 0 min 0 min 16 W/m 35,4 km/h (5 Bft) 100,00 %
25.04.2019 19:24 17,2 C 16,1 C 16,1 C 62 % 1004,7 hPa 0,0 l/m 0 min 0 min 16 W/m 35,4 km/h (5 Bft) 100,00 %
25.04.2019 19:26 17,2 C 16,1 C 15,6 C 62 % 1004,7 hPa 0,0 l/m 0 min 0 min 16 W/m 38,6 km/h (5 Bft) 100,00 %
25.04.2019 19:28 17,1 C 16,1 C 15,6 C 62 % 1004,9 hPa 0,0 l/m 0 min 0 min 18 W/m 29,0 km/h (5 Bft) 100,00 %
25.04.2019 19:30 17,0 C 16,1 C 15,6 C 62 % 1004,8 hPa 0,0 l/m 0 min 0 min 20 W/m 29,0 km/h (5 Bft) 100,00 %
25.04.2019 19:32 16,9 C 16,1 C 15,6 C 63 % 1004,8 hPa 0,0 l/m 0 min 0 min 21 W/m 19,3 km/h (3 Bft) 97,87 %
25.04.2019 19:34 16,9 C 15,6 C 15,6 C 63 % 1004,9 hPa 0,0 l/m 0 min 0 min 18 W/m 25,7 km/h (4 Bft) 100,00 %
25.04.2019 19:36 16,9 C 15,6 C 15,6 C 64 % 1004,9 hPa 0,0 l/m 0 min 0 min 18 W/m 25,7 km/h (4 Bft) 100,00 %
25.04.2019 19:38 16,8 C 15,6 C 15,6 C 64 % 1004,9 hPa 0,0 l/m 0 min 2 min 18 W/m 19,3 km/h (3 Bft) 100,00 %
25.04.2019 19:40 16,8 C 15,6 C 15,0 C 65 % 1004,8 hPa 0,0 l/m 0 min 2 min 18 W/m 19,3 km/h (3 Bft) 100,00 %
25.04.2019 19:42 16,7 C 15,0 C 14,4 C 66 % 1005,0 hPa 0,0 l/m 0 min 2 min 18 W/m 19,3 km/h (3 Bft) 95,65 %
25.04.2019 19:44 16,7 C 15,0 C 14,4 C 66 % 1005,1 hPa 0,0 l/m 0 min 2 min 14 W/m 29,0 km/h (5 Bft) 100,00 %
25.04.2019 19:46 16,6 C 14,4 C 13,9 C 67 % 1005,1 hPa 0,0 l/m 0 min 2 min 12 W/m 22,5 km/h (4 Bft) 100,00 %
25.04.2019 19:48 16,6 C 14,4 C 13,9 C 67 % 1005,0 hPa 0,0 l/m 0 min 2 min 12 W/m 32,2 km/h (5 Bft) 97,87 %
25.04.2019 19:50 16,4 C 14,4 C 13,3 C 67 % 1005,0 hPa 0,0 l/m 0 min 2 min 12 W/m 29,0 km/h (5 Bft) 100,00 %
25.04.2019 19:52 16,4 C 14,4 C 13,9 C 69 % 1005,0 hPa 0,0 l/m 0 min 2 min 13 W/m 12,9 km/h (3 Bft) 100,00 %
25.04.2019 19:54 16,3 C 14,4 C 13,9 C 69 % 1004,9 hPa 0,0 l/m 0 min 2 min 16 W/m 9,7 km/h (2 Bft) 100,00 %
25.04.2019 19:56 16,2 C 14,4 C 13,9 C 69 % 1004,7 hPa 0,0 l/m 0 min 2 min 16 W/m 29,0 km/h (5 Bft) 100,00 %
25.04.2019 19:58 16,1 C 13,9 C 13,9 C 69 % 1004,7 hPa 0,0 l/m 0 min 2 min 14 W/m 19,3 km/h (3 Bft) 97,87 %
25.04.2019 20:00 16,1 C 13,9 C 13,9 C 69 % 1005,0 hPa 0,0 l/m 0 min 2 min 14 W/m 25,7 km/h (4 Bft) 100,00 %
25.04.2019 20:02 16,0 C 14,4 C 13,9 C 69 % 1004,9 hPa 0,0 l/m 0 min 0 min 16 W/m 9,7 km/h (2 Bft) 100,00 %
25.04.2019 20:04 15,9 C 14,4 C 13,9 C 70 % 1004,9 hPa 0,0 l/m 0 min 0 min 18 W/m 16,1 km/h (3 Bft) 100,00 %
25.04.2019 20:06 15,9 C 14,4 C 13,9 C 71 % 1004,8 hPa 0,0 l/m 0 min 0 min 18 W/m 6,4 km/h (2 Bft) 100,00 %
25.04.2019 20:08 15,8 C 14,4 C 13,9 C 71 % 1004,9 hPa 0,0 l/m 0 min 0 min 17 W/m 9,7 km/h (2 Bft) 100,00 %
25.04.2019 20:10 15,8 C 14,4 C 13,9 C 71 % 1004,8 hPa 0,0 l/m 0 min 0 min 12 W/m 16,1 km/h (3 Bft) 97,87 %
25.04.2019 20:12 15,7 C 14,4 C 13,9 C 72 % 1004,8 hPa 0,0 l/m 0 min 0 min 6 W/m 12,9 km/h (3 Bft) 100,00 %
25.04.2019 20:14 15,7 C 14,4 C 13,9 C 72 % 1004,9 hPa 0,0 l/m 0 min 0 min 1 W/m 9,7 km/h (2 Bft) 100,00 %
25.04.2019 20:16 15,6 C 14,4 C 13,9 C 72 % 1004,9 hPa 0,0 l/m 0 min 0 min 0 W/m 12,9 km/h (3 Bft) 97,87 %
25.04.2019 20:18 15,5 C 13,9 C 13,9 C 73 % 1004,9 hPa 0,0 l/m 0 min 0 min 0 W/m 16,1 km/h (3 Bft) 100,00 %
25.04.2019 20:20 15,4 C 13,9 C 13,3 C 72 % 1004,8 hPa 0,0 l/m 0 min 0 min 0 W/m 12,9 km/h (3 Bft) 100,00 %
25.04.2019 20:22 15,4 C 13,9 C 13,3 C 73 % 1004,8 hPa 0,0 l/m 0 min 0 min 0 W/m 9,7 km/h (2 Bft) 100,00 %
25.04.2019 20:24 15,3 C 13,9 C 13,3 C 74 % 1004,8 hPa 0,0 l/m 0 min 0 min 0 W/m 9,7 km/h (2 Bft) 100,00 %
25.04.2019 20:26 15,3 C 13,3 C 13,3 C 74 % 1004,9 hPa 0,0 l/m 0 min 2 min 0 W/m 16,1 km/h (3 Bft) 97,87 %
25.04.2019 20:28 15,2 C 13,3 C 12,8 C 74 % 1005,0 hPa 0,0 l/m 0 min 0 min 0 W/m 6,4 km/h (2 Bft) 97,87 %
25.04.2019 20:30 15,2 C 13,3 C 12,8 C 75 % 1005,1 hPa 0,0 l/m 0 min 0 min 0 W/m 12,9 km/h (3 Bft) 100,00 %
25.04.2019 20:32 15,1 C 13,3 C 13,3 C 76 % 1005,7 hPa 0,0 l/m 0 min 2 min 0 W/m 12,9 km/h (3 Bft) 100,00 %
25.04.2019 20:34 15,1 C 13,3 C 13,3 C 76 % 1005,8 hPa 0,0 l/m 0 min 2 min 0 W/m 29,0 km/h (5 Bft) 97,87 %
25.04.2019 20:36 14,9 C 13,3 C 13,3 C 76 % 1005,6 hPa 0,0 l/m 0 min 2 min 0 W/m 16,1 km/h (3 Bft) 95,74 %
25.04.2019 20:38 14,9 C 13,3 C 12,8 C 76 % 1005,6 hPa 0,0 l/m 0 min 2 min 0 W/m 12,9 km/h (3 Bft) 95,74 %
25.04.2019 20:40 14,9 C 11,7 C 11,7 C 76 % 1005,8 hPa 0,0 l/m 0 min 2 min 0 W/m 9,7 km/h (2 Bft) 97,83 %
25.04.2019 20:42 14,8 C 11,1 C 11,1 C 78 % 1005,7 hPa 0,2 l/m 0 min 2 min 0 W/m 22,5 km/h (4 Bft) 98,18 %
25.04.2019 20:44 14,7 C 10,6 C 10,6 C 78 % 1005,8 hPa 0,0 l/m 0 min 2 min 0 W/m 25,7 km/h (4 Bft) 94,74 %
25.04.2019 20:46 14,5 C 10,6 C 10,6 C 78 % 1006,1 hPa 0,0 l/m 0 min 2 min 0 W/m 29,0 km/h (5 Bft) 93,75 %
25.04.2019 20:48 14,4 C 10,6 C 10,6 C 79 % 1006,0 hPa 0,2 l/m 0 min 2 min 0 W/m 25,7 km/h (4 Bft) 95,74 %
25.04.2019 20:50 14,2 C 10,6 C 10,6 C 80 % 1005,9 hPa 0,0 l/m 0 min 2 min 0 W/m 16,1 km/h (3 Bft) 95,74 %
25.04.2019 20:52 14,2 C 10,6 C 10,6 C 81 % 1006,0 hPa 0,0 l/m 0 min 2 min 0 W/m 12,9 km/h (3 Bft) 93,48 %
25.04.2019 20:54 14,1 C 10,6 C 10,6 C 81 % 1006,0 hPa 0,0 l/m 0 min 2 min 0 W/m 12,9 km/h (3 Bft) 93,62 %
25.04.2019 20:56 13,9 C 10,6 C 10,6 C 82 % 1005,9 hPa 0,2 l/m 0 min 2 min 0 W/m 12,9 km/h (3 Bft) 95,74 %
25.04.2019 20:58 13,8 C 10,0 C 10,6 C 82 % 1006,0 hPa 0,0 l/m 0 min 2 min 0 W/m 12,9 km/h (3 Bft) 95,74 %
25.04.2019 21:00 13,7 C 10,6 C 10,6 C 83 % 1006,2 hPa 0,0 l/m 0 min 2 min 0 W/m 16,1 km/h (3 Bft) 95,74 %
25.04.2019 21:02 13,6 C 10,6 C 10,6 C 83 % 1006,3 hPa 0,0 l/m 0 min 2 min 0 W/m 16,1 km/h (3 Bft) 97,83 %
25.04.2019 21:04 13,4 C 10,6 C 10,0 C 84 % 1006,4 hPa 0,0 l/m 0 min 2 min 0 W/m 16,1 km/h (3 Bft) 95,74 %
25.04.2019 21:06 13,3 C 10,0 C 10,0 C 84 % 1006,5 hPa 0,0 l/m 0 min 2 min 0 W/m 19,3 km/h (3 Bft) 92,73 %
25.04.2019 21:08 13,3 C 10,0 C 10,0 C 84 % 1006,6 hPa 0,2 l/m 0 min 2 min 0 W/m 9,7 km/h (2 Bft) 97,87 %
25.04.2019 21:10 13,2 C 10,0 C 10,0 C 85 % 1006,8 hPa 0,2 l/m 0 min 2 min 0 W/m 12,9 km/h (3 Bft) 93,62 %
25.04.2019 21:12 13,2 C 10,0 C 10,0 C 85 % 1006,7 hPa 0,0 l/m 0 min 2 min 0 W/m 9,7 km/h (2 Bft) 94,74 %
25.04.2019 21:14 13,1 C 10,6 C 10,0 C 85 % 1006,7 hPa 0,0 l/m 0 min 2 min 0 W/m 6,4 km/h (2 Bft) 93,62 %
25.04.2019 21:16 13,1 C 10,0 C 10,0 C 86 % 1006,6 hPa 0,2 l/m 0 min 2 min 0 W/m 3,2 km/h (1 Bft) 91,49 %
25.04.2019 21:18 13,0 C 10,0 C 10,0 C 86 % 1006,6 hPa 0,2 l/m 0 min 2 min 0 W/m 3,2 km/h (1 Bft) 91,49 %
25.04.2019 21:20 12,9 C 10,6 C 10,0 C 86 % 1006,7 hPa 0,0 l/m 0 min 2 min 0 W/m 0,0 km/h (0 Bft) 93,62 %
25.04.2019 21:22 12,9 C 10,6 C 10,0 C 86 % 1006,5 hPa 0,0 l/m 0 min 2 min 0 W/m 3,2 km/h (1 Bft) 91,49 %
25.04.2019 21:24 12,9 C 10,6 C 10,0 C 86 % 1006,5 hPa 0,0 l/m 0 min 2 min 0 W/m 3,2 km/h (1 Bft) 94,55 %
25.04.2019 21:26 12,9 C 10,6 C 10,6 C 87 % 1006,6 hPa 0,2 l/m 0 min 2 min 0 W/m 3,2 km/h (1 Bft) 95,74 %
25.04.2019 21:28 12,8 C 10,0 C 10,0 C 87 % 1006,7 hPa 0,0 l/m 0 min 2 min 0 W/m 6,4 km/h (2 Bft) 95,65 %
25.04.2019 21:30 12,8 C 10,0 C 10,0 C 87 % 1006,6 hPa 0,0 l/m 0 min 2 min 0 W/m 3,2 km/h (1 Bft) 97,37 %
25.04.2019 21:32 12,7 C 10,0 C 10,0 C 87 % 1006,6 hPa 0,0 l/m 0 min 2 min 0 W/m 3,2 km/h (1 Bft) 97,87 %
25.04.2019 21:34 12,7 C 10,0 C 10,0 C 87 % 1006,5 hPa 0,2 l/m 0 min 2 min 0 W/m 0,0 km/h (0 Bft) 97,87 %
25.04.2019 21:36 12,7 C 10,0 C 10,0 C 87 % 1006,6 hPa 0,0 l/m 0 min 2 min 0 W/m 3,2 km/h (1 Bft) 96,61 %
25.04.2019 21:38 12,6 C 10,0 C 10,0 C 87 % 1006,7 hPa 0,0 l/m 0 min 2 min 0 W/m 6,4 km/h (2 Bft) 97,14 %
25.04.2019 21:40 12,6 C 10,0 C 10,0 C 88 % 1006,9 hPa 0,0 l/m 0 min 2 min 0 W/m 6,4 km/h (2 Bft) 97,87 %
25.04.2019 21:42 12,6 C 10,0 C 10,0 C 88 % 1006,8 hPa 0,0 l/m 0 min 2 min 0 W/m 6,4 km/h (2 Bft) 97,87 %
25.04.2019 21:44 12,5 C 10,0 C 10,0 C 88 % 1006,8 hPa 0,0 l/m 0 min 2 min 0 W/m 9,7 km/h (2 Bft) 97,87 %
25.04.2019 21:46 12,5 C 10,0 C 10,0 C 88 % 1006,9 hPa 0,2 l/m 0 min 2 min 0 W/m 3,2 km/h (1 Bft) 98,18 %
25.04.2019 21:48 12,4 C 10,0 C 10,0 C 88 % 1006,9 hPa 0,0 l/m 0 min 2 min 0 W/m 0,0 km/h (0 Bft) 95,74 %
25.04.2019 21:50 12,4 C 10,6 C 10,0 C 89 % 1007,0 hPa 0,2 l/m 0 min 2 min 0 W/m 0,0 km/h (0 Bft) 97,87 %
25.04.2019 21:52 12,4 C 10,6 C 10,0 C 89 % 1007,0 hPa 0,0 l/m 0 min 2 min 0 W/m 0,0 km/h (0 Bft) 95,65 %
25.04.2019 21:54 12,4 C 10,6 C 10,0 C 89 % 1007,2 hPa 0,0 l/m 0 min 2 min 0 W/m 9,7 km/h (2 Bft) 97,87 %
25.04.2019 21:56 12,3 C 10,6 C 10,0 C 89 % 1007,3 hPa 0,2 l/m 0 min 2 min 0 W/m 6,4 km/h (2 Bft) 95,74 %
25.04.2019 21:58 12,3 C 10,6 C 10,0 C 89 % 1007,3 hPa 0,0 l/m 0 min 2 min 0 W/m 3,2 km/h (1 Bft) 100,00 %
25.04.2019 22:00 12,3 C 10,6 C 10,0 C 90 % 1007,4 hPa 0,2 l/m 0 min 2 min 0 W/m 6,4 km/h (2 Bft) 95,74 %
25.04.2019 22:02 12,3 C 10,6 C 10,0 C 90 % 1007,4 hPa 0,0 l/m 0 min 2 min 0 W/m 0,0 km/h (0 Bft) 97,87 %
25.04.2019 22:04 12,3 C 10,6 C 10,0 C 90 % 1007,5 hPa 0,2 l/m 0 min 2 min 0 W/m 3,2 km/h (1 Bft) 97,87 %
25.04.2019 22:06 12,2 C 10,6 C 10,0 C 90 % 1007,5 hPa 0,0 l/m 0 min 2 min 0 W/m 3,2 km/h (1 Bft) 95,74 %
25.04.2019 22:08 12,2 C 10,0 C 10,0 C 90 % 1007,5 hPa 0,2 l/m 0 min 2 min 0 W/m 6,4 km/h (2 Bft) 97,87 %
25.04.2019 22:10 12,2 C 10,0 C 10,0 C 90 % 1007,4 hPa 0,0 l/m 0 min 2 min 0 W/m 0,0 km/h (0 Bft) 97,87 %
25.04.2019 22:12 12,2 C 10,0 C 10,0 C 90 % 1007,5 hPa 0,0 l/m 0 min 2 min 0 W/m 6,4 km/h (2 Bft) 97,83 %
25.04.2019 22:14 12,2 C 10,0 C 10,0 C 91 % 1007,4 hPa 0,4 l/m 0 min 2 min 0 W/m 0,0 km/h (0 Bft) 97,87 %
25.04.2019 22:16 12,1 C 10,0 C 10,0 C 91 % 1007,3 hPa 0,0 l/m 0 min 2 min 0 W/m 0,0 km/h (0 Bft) 97,87 %
25.04.2019 22:18 12,1 C 10,0 C 10,0 C 91 % 1007,1 hPa 0,0 l/m 0 min 2 min 0 W/m 3,2 km/h (1 Bft) 97,87 %
25.04.2019 22:20 12,1 C 10,0 C 10,0 C 91 % 1007,3 hPa 0,0 l/m 0 min 2 min 0 W/m 0,0 km/h (0 Bft) 98,18 %
25.04.2019 22:22 12,1 C 10,0 C 10,0 C 91 % 1007,4 hPa 0,2 l/m 0 min 2 min 0 W/m 6,4 km/h (2 Bft) 97,37 %
25.04.2019 22:24 12,1 C 10,0 C 10,0 C 91 % 1007,4 hPa 0,0 l/m 0 min 2 min 0 W/m 3,2 km/h (1 Bft) 97,87 %
25.04.2019 22:26 12,1 C 10,0 C 10,0 C 91 % 1007,3 hPa 0,2 l/m 0 min 2 min 0 W/m 0,0 km/h (0 Bft) 100,00 %
25.04.2019 22:28 12,0 C 10,0 C 10,0 C 91 % 1007,3 hPa 0,0 l/m 0 min 2 min 0 W/m 0,0 km/h (0 Bft) 97,87 %
25.04.2019 22:30 12,0 C 10,0 C 10,0 C 91 % 1007,2 hPa 0,0 l/m 0 min 2 min 0 W/m 0,0 km/h (0 Bft) 97,87 %
25.04.2019 22:32 11,9 C 10,0 C 10,0 C 91 % 1007,3 hPa 0,0 l/m 0 min 2 min 0 W/m 3,2 km/h (1 Bft) 100,00 %
25.04.2019 22:34 11,9 C 10,0 C 10,0 C 91 % 1007,4 hPa 0,0 l/m 0 min 2 min 0 W/m 0,0 km/h (0 Bft) 100,00 %
25.04.2019 22:36 11,9 C 10,0 C 10,0 C 92 % 1007,5 hPa 0,0 l/m 0 min 2 min 0 W/m 0,0 km/h (0 Bft) 100,00 %
25.04.2019 22:38 11,9 C 10,0 C 10,0 C 92 % 1007,5 hPa 0,0 l/m 0 min 2 min 0 W/m 0,0 km/h (0 Bft) 100,00 %
25.04.2019 22:40 11,9 C 10,0 C 10,0 C 92 % 1007,3 hPa 0,0 l/m 0 min 2 min 0 W/m 0,0 km/h (0 Bft) 97,87 %
25.04.2019 22:42 11,9 C 10,0 C 10,0 C 92 % 1007,2 hPa 0,0 l/m 0 min 2 min 0 W/m 0,0 km/h (0 Bft) 97,87 %
25.04.2019 22:44 11,8 C 10,0 C 10,0 C 92 % 1007,1 hPa 0,2 l/m 0 min 2 min 0 W/m 0,0 km/h (0 Bft) 100,00 %
25.04.2019 22:46 11,8 C 10,0 C 10,0 C 92 % 1007,4 hPa 0,0 l/m 0 min 2 min 0 W/m 0,0 km/h (0 Bft) 100,00 %
25.04.2019 22:48 11,8 C 10,0 C 10,0 C 92 % 1007,5 hPa 0,0 l/m 0 min 2 min 0 W/m 3,2 km/h (1 Bft) 97,87 %
25.04.2019 22:50 11,8 C 10,0 C 10,0 C 92 % 1007,5 hPa 0,0 l/m 0 min 2 min 0 W/m 0,0 km/h (0 Bft) 97,83 %
25.04.2019 22:52 11,8 C 10,0 C 10,0 C 92 % 1007,4 hPa 0,0 l/m 0 min 2 min 0 W/m 6,4 km/h (2 Bft) 97,87 %
25.04.2019 22:54 11,8 C 10,0 C 10,0 C 92 % 1007,3 hPa 0,0 l/m 0 min 2 min 0 W/m 3,2 km/h (1 Bft) 97,87 %
25.04.2019 22:56 11,8 C 10,0 C 10,0 C 92 % 1007,2 hPa 0,2 l/m 0 min 2 min 0 W/m 3,2 km/h (1 Bft) 100,00 %
25.04.2019 22:58 11,7 C 10,0 C 10,0 C 92 % 1007,3 hPa 0,0 l/m 0 min 2 min 0 W/m 6,4 km/h (2 Bft) 100,00 %
25.04.2019 23:00 11,7 C 10,0 C 10,0 C 92 % 1007,2 hPa 0,0 l/m 0 min 2 min 0 W/m 6,4 km/h (2 Bft) 100,00 %
25.04.2019 23:02 11,7 C 10,0 C 10,0 C 92 % 1007,2 hPa 0,0 l/m 0 min 2 min 0 W/m 3,2 km/h (1 Bft) 97,37 %
25.04.2019 23:04 11,7 C 10,0 C 10,0 C 93 % 1007,4 hPa 0,0 l/m 0 min 2 min 0 W/m 6,4 km/h (2 Bft) 97,87 %
25.04.2019 23:06 11,7 C 10,0 C 10,0 C 93 % 1007,4 hPa 0,0 l/m 0 min 2 min 0 W/m 3,2 km/h (1 Bft) 98,28 %
25.04.2019 23:08 11,6 C 10,0 C 10,0 C 93 % 1007,3 hPa 0,0 l/m 0 min 2 min 0 W/m 6,4 km/h (2 Bft) 100,00 %
25.04.2019 23:10 11,6 C 10,0 C 10,0 C 93 % 1007,4 hPa 0,0 l/m 0 min 2 min 0 W/m 6,4 km/h (2 Bft) 97,87 %
25.04.2019 23:12 11,6 C 10,0 C 10,0 C 93 % 1007,2 hPa 0,0 l/m 0 min 2 min 0 W/m 3,2 km/h (1 Bft) 97,87 %
25.04.2019 23:14 11,6 C 10,0 C 10,0 C 93 % 1007,1 hPa 0,0 l/m 0 min 2 min 0 W/m 3,2 km/h (1 Bft) 97,87 %
25.04.2019 23:16 11,6 C 10,0 C 9,4 C 93 % 1007,1 hPa 0,0 l/m 0 min 2 min 0 W/m 0,0 km/h (0 Bft) 97,83 %
25.04.2019 23:18 11,5 C 10,0 C 9,4 C 93 % 1007,1 hPa 0,0 l/m 0 min 2 min 0 W/m 6,4 km/h (2 Bft) 100,00 %
25.04.2019 23:20 11,5 C 10,0 C 9,4 C 93 % 1007,2 hPa 0,0 l/m 0 min 2 min 0 W/m 3,2 km/h (1 Bft) 97,87 %
25.04.2019 23:22 11,5 C 10,0 C 9,4 C 93 % 1007,2 hPa 0,2 l/m 0 min 2 min 0 W/m 3,2 km/h (1 Bft) 97,87 %
25.04.2019 23:24 11,4 C 10,0 C 10,0 C 93 % 1007,2 hPa 0,0 l/m 0 min 2 min 0 W/m 3,2 km/h (1 Bft) 97,87 %
25.04.2019 23:26 11,4 C 10,0 C 10,0 C 93 % 1007,2 hPa 0,0 l/m 0 min 2 min 0 W/m 3,2 km/h (1 Bft) 95,74 %
25.04.2019 23:28 11,4 C 10,0 C 9,4 C 93 % 1007,0 hPa 0,0 l/m 0 min 2 min 0 W/m 9,7 km/h (2 Bft) 97,83 %
25.04.2019 23:30 11,4 C 10,0 C 9,4 C 93 % 1007,1 hPa 0,0 l/m 0 min 2 min 0 W/m 6,4 km/h (2 Bft) 97,87 %
25.04.2019 23:32 11,4 C 10,0 C 9,4 C 93 % 1007,0 hPa 0,0 l/m 0 min 2 min 0 W/m 3,2 km/h (1 Bft) 97,87 %
25.04.2019 23:34 11,4 C 10,0 C 9,4 C 93 % 1006,9 hPa 0,0 l/m 0 min 2 min 0 W/m 0,0 km/h (0 Bft) 93,62 %
25.04.2019 23:36 11,3 C 10,0 C 9,4 C 93 % 1007,0 hPa 0,0 l/m 0 min 2 min 0 W/m 3,2 km/h (1 Bft) 93,10 %
25.04.2019 23:38 11,3 C 10,0 C 9,4 C 94 % 1007,0 hPa 0,0 l/m 0 min 0 min 0 W/m 3,2 km/h (1 Bft) 94,44 %
25.04.2019 23:40 11,3 C 10,0 C 9,4 C 94 % 1007,0 hPa 0,0 l/m 0 min 0 min 0 W/m 0,0 km/h (0 Bft) 95,65 %
25.04.2019 23:42 11,3 C 10,0 C 9,4 C 94 % 1007,0 hPa 0,0 l/m 0 min 0 min 0 W/m 3,2 km/h (1 Bft) 93,62 %
25.04.2019 23:44 11,3 C 10,0 C 9,4 C 94 % 1007,1 hPa 0,0 l/m 0 min 0 min 0 W/m 3,2 km/h (1 Bft) 95,74 %
25.04.2019 23:46 11,3 C 10,0 C 9,4 C 94 % 1007,0 hPa 0,0 l/m 0 min 0 min 0 W/m 3,2 km/h (1 Bft) 93,62 %
25.04.2019 23:48 11,3 C 10,0 C 9,4 C 94 % 1007,0 hPa 0,0 l/m 0 min 0 min 0 W/m 3,2 km/h (1 Bft) 95,74 %
25.04.2019 23:50 11,3 C 10,0 C 9,4 C 94 % 1007,0 hPa 0,0 l/m 0 min 0 min 0 W/m 3,2 km/h (1 Bft) 95,74 %
25.04.2019 23:52 11,3 C 10,0 C 9,4 C 94 % 1007,0 hPa 0,0 l/m 0 min 0 min 0 W/m 3,2 km/h (1 Bft) 91,30 %
25.04.2019 23:54 11,2 C 10,0 C 9,4 C 94 % 1007,0 hPa 0,0 l/m 0 min 0 min 0 W/m 3,2 km/h (1 Bft) 95,74 %
25.04.2019 23:56 11,2 C 10,0 C 9,4 C 94 % 1007,0 hPa 0,0 l/m 0 min 0 min 0 W/m 6,4 km/h (2 Bft) 93,62 %
25.04.2019 23:58 11,2 C 10,0 C 9,4 C 94 % 1007,1 hPa 0,0 l/m 0 min 0 min 0 W/m 3,2 km/h (1 Bft) 93,62 %
_ Min-Zeit 04:36 02:38 02:56 15:22 03:04 - - - - 03:04 00:02
Minimum _ 8,8 C 7,8 C 7,2 C 46 % 1002,5 hPa - - - - 0,0 km/h (0 Bft) 11,11 %
_ Max-Zeit 15:22 14:48 14:06 00:04 22:04 22:14 11:05 07:32 14:38 13:26 00:52
Maximum _ 22,4 C 26,1 C 27,2 C 95 % 1007,5 hPa 0,4 l/m 5 min 2 min 1030 W/m 48,3 km/h
O (6 Bft)
100,00 %
Durchschnitt _ 13,8 C 13,5 C 13,1 C 79 % 1004,2 hPa #4,6 l/m #4:39 h #3:52 h 279 W/m 18,2 km/h (3 Bft) 97,36 %
© 2019 W. Hausmann